GFSCGP_sfc_dewp_000.txt.gz
Dewpoint
21 26 21 19 22 20 18 18 18 19 18 19 20 20 19 16 16 20 21 25 26 28 28 33 38 40 39 43 40 39 38 41 40 41 41 41 42 43 44 43 43 45 43 43
19 25 22 20 20 19 16 17 20 21 21 23 22 20 18 17 19 20 21 26 27 29 28 32 36 41 42 41 41 39 39 40 40 39 40 41 42 41 41 42 44 43 45 43
17 25 20 20 19 21 18 23 23 22 23 22 21 16 17 18 20 20 24 26 26 28 29 31 38 41 43 43 43 40 39 39 41 40 38 40 41 41 39 39 41 43 44 45
21 22 20 20 19 21 20 24 25 26 25 21 24 15 14 17 19 20 24 30 31 31 32 33 38 39 43 43 45 43 42 39 39 43 37 40 36 33 34 37 37 37 44 44
26 22 17 19 22 23 24 27 28 27 27 25 21 16 16 17 15 18 25 28 32 34 35 34 34 36 40 42 46 45 43 42 41 42 42 39 40 39 39 40 40 39 40 40
17 20 21 22 24 25 28 28 27 27 26 29 24 22 19 16 18 18 21 26 31 33 35 34 36 37 37 44 45 47 45 41 42 42 43 43 40 41 41 41 39 39 39 40
24 22 23 26 26 27 28 29 32 35 35 32 23 21 23 24 21 21 24 28 33 36 36 37 36 36 39 41 44 46 44 41 41 44 44 42 43 42 41 41 39 37 36 35
26 27 24 28 27 28 28 28 35 27 27 27 25 20 18 20 21 22 25 31 32 36 37 36 38 40 40 42 43 43 39 39 40 42 43 44 43 41 41 39 37 35 34 34
31 26 28 28 28 29 28 31 30 31 36 31 28 25 25 24 22 25 26 28 34 35 37 36 38 39 41 43 43 44 42 41 41 42 44 43 42 40 38 37 36 35 34 29
32 30 31 29 32 32 30 31 31 36 30 25 22 25 24 26 29 30 31 32 35 36 37 37 38 40 41 41 42 44 45 40 39 39 39 37 37 37 35 35 33 32 32 32
34 34 33 33 30 29 29 31 33 30 32 30 28 25 31 31 32 32 31 33 34 37 37 37 39 39 40 41 40 39 38 36 37 37 38 37 34 35 32 31 30 30 32 31
37 35 34 32 32 29 28 30 30 34 31 32 33 30 32 33 34 33 33 33 35 35 34 35 36 37 39 40 41 40 37 36 35 34 35 34 32 31 31 30 31 33 31 32
36 37 32 28 30 31 31 30 30 34 37 32 32 30 32 33 33 32 32 34 34 35 33 35 35 38 39 40 41 41 34 35 33 30 32 31 31 30 30 32 32 31 31 30
39 34 35 32 32 32 32 30 31 32 32 30 31 30 30 30 30 31 33 34 34 34 34 35 36 38 39 41 41 37 32 35 31 29 29 31 30 32 32 32 32 32 31 30
37 36 34 33 32 32 32 31 30 29 29 28 28 27 27 29 29 32 34 35 35 34 36 39 39 38 39 41 41 35 32 33 31 29 28 32 36 35 33 32 32 31 31 28
41 37 37 35 34 33 31 32 32 30 28 27 29 29 30 29 30 33 35 35 36 38 39 40 38 38 40 40 40 32 31 31 30 30 37 39 36 33 32 32 31 31 29 27
38 39 35 32 33 33 32 31 31 30 29 29 28 30 29 29 33 35 37 37 39 39 40 40 39 40 40 39 36 34 34 39 40 40 37 36 36 30 30 29 28 28 26 26
37 37 35 33 33 27 29 30 30 30 30 30 28 28 30 32 37 37 39 40 40 41 41 40 41 40 39 37 37 40 41 38 37 36 36 35 30 27 27 28 26 25 24 24
36 39 36 32 32 31 31 30 32 31 30 31 31 35 36 37 40 39 40 41 43 41 40 40 38 39 38 38 40 40 40 39 38 33 27 25 26 26 27 25 23 24 23 22
38 41 40 37 30 27 33 30 32 32 29 39 38 38 40 39 37 39 41 41 41 40 39 36 38 38 38 39 39 36 35 33 27 26 25 24 26 25 22 22 22 22 22 20
38 37 34 34 32 32 33 32 36 31 35 41 41 41 40 39 41 42 41 41 41 38 34 38 37 37 37 37 35 30 25 25 23 23 24 24 23 21 21 22 21 20 20 24
32 34 33 33 32 30 34 36 36 38 42 41 42 42 41 40 40 40 39 40 38 35 37 36 37 36 35 33 33 23 17 19 21 23 24 23 22 21 19 21 19 20 21 23
32 35 34 32 33 36 37 37 40 40 42 42 43 39 39 39 38 39 39 37 36 36 36 36 36 35 35 30 20 20 23 20 23 23 23 23 23 22 20 18 19 19 20 23
36 36 36 35 34 35 37 39 40 41 41 42 40 40 40 36 33 32 35 36 35 36 36 36 35 31 28 25 21 21 23 25 22 23 25 24 24 22 20 19 20 18 22 23
37 37 36 35 37 37 38 40 40 41 41 41 41 41 32 30 28 30 35 34 35 36 35 35 32 30 25 26 26 23 25 25 24 26 25 25 25 22 20 20 20 22 24 24
38 37 37 35 37 40 39 40 40 39 41 40 34 29 29 29 33 35 34 34 34 35 35 31 30 24 23 25 25 26 27 27 27 25 25 26 24 23 22 19 20 24 25 25

GFSCGP_sfc_dewp_003.txt.gz
Dewpoint
23 26 22 20 23 23 20 17 18 21 22 23 22 21 21 18 18 19 22 23 25 26 28 34 35 33 34 34 32 32 33 35 36 36 36 35 37 38 40 39 43 43 43 40
22 25 24 22 22 22 21 21 24 23 25 25 23 22 22 18 19 20 24 25 26 26 28 31 34 35 33 33 33 32 33 34 35 36 36 36 36 36 37 39 41 43 42 41
21 26 23 22 24 22 21 25 25 25 27 27 24 21 18 21 20 24 25 25 26 26 27 29 31 34 36 35 35 35 34 34 37 35 35 36 38 37 34 35 40 40 40 42
24 25 20 22 24 23 21 27 27 27 27 24 25 20 17 19 20 23 24 27 28 29 29 30 29 31 36 37 38 36 36 37 37 38 35 34 33 32 33 34 35 38 41 42
24 21 20 24 23 25 25 29 28 29 28 26 24 21 16 20 20 22 26 28 29 30 31 30 31 31 31 38 40 40 38 38 39 39 38 35 34 38 36 38 36 38 41 41
21 23 24 25 26 28 30 31 31 33 28 25 25 23 21 20 19 23 27 29 31 31 31 33 34 34 35 39 40 41 40 39 40 40 39 39 36 35 38 37 37 39 38 38
30 25 26 30 28 31 29 31 27 24 24 24 25 23 23 25 23 25 27 28 29 29 32 35 32 34 37 38 39 40 41 41 41 41 41 40 39 36 36 38 37 36 34 35
30 27 29 30 30 29 29 29 27 22 22 25 27 23 22 25 23 25 26 27 32 31 33 34 35 38 39 39 39 40 40 41 40 41 41 42 41 40 37 38 37 34 33 34
32 30 33 30 31 30 30 31 32 27 25 24 28 28 25 26 30 32 31 31 32 32 35 35 37 40 40 40 40 40 39 40 40 38 39 39 40 37 35 32 32 34 33 31
34 31 35 34 34 33 31 33 29 29 24 23 24 26 26 29 30 32 32 32 34 36 35 37 37 40 40 40 39 39 38 36 35 35 33 34 32 30 32 33 31 30 31 30
36 35 33 35 33 32 30 30 31 32 30 29 27 28 31 30 32 33 30 34 34 34 34 35 36 39 40 40 40 39 39 38 31 33 33 32 31 29 28 28 29 29 30 28
37 33 29 32 33 33 29 32 32 32 32 30 28 30 32 33 33 31 36 34 35 33 34 35 37 39 40 40 41 40 40 34 30 34 31 29 28 26 26 27 29 31 30 31
36 32 27 29 31 34 33 32 33 33 31 29 28 29 33 33 34 34 33 34 35 35 36 39 40 40 39 40 41 40 39 31 30 29 28 26 26 25 27 29 28 28 29 30
39 35 30 28 30 34 32 32 32 32 24 28 29 29 29 29 29 32 34 35 35 36 39 40 40 40 39 39 40 40 34 33 32 28 27 27 27 27 29 29 29 29 30 29
37 31 34 34 35 34 34 32 32 31 30 28 29 28 29 28 30 34 35 36 36 39 39 40 39 40 38 40 40 36 33 34 33 29 29 33 34 33 31 31 29 30 30 30
39 31 33 34 35 35 32 32 31 31 31 30 29 27 30 27 35 36 37 38 39 39 39 39 40 40 40 40 37 36 36 38 39 38 39 39 37 35 33 30 31 31 29 28
35 31 31 31 34 33 26 29 30 30 29 29 28 30 36 36 36 37 38 39 39 40 40 40 40 40 40 40 36 36 38 39 40 40 38 39 39 38 37 32 28 27 25 24
31 30 29 31 29 26 30 31 29 30 31 32 36 38 39 40 41 40 39 40 39 39 40 40 39 38 38 37 38 39 40 41 39 38 37 38 39 36 27 27 26 23 22 21
38 32 32 31 29 29 31 32 31 29 28 38 37 37 38 41 40 39 40 41 40 40 40 39 39 38 38 37 38 39 39 40 40 37 35 28 27 25 25 23 21 21 20 19
39 36 32 28 24 24 27 31 36 34 29 40 41 42 41 40 35 35 40 41 40 41 40 37 38 37 37 37 38 37 34 36 25 24 24 25 25 23 21 20 19 19 19 19
29 27 25 19 27 28 32 34 40 28 32 39 43 43 42 39 39 41 41 40 39 38 36 36 36 37 37 35 31 27 16 19 23 25 25 24 23 21 20 20 20 18 19 22
26 25 29 29 30 25 36 35 29 34 39 40 40 40 40 41 41 38 38 38 37 36 36 36 36 35 34 31 27 13 16 20 24 24 24 23 23 21 20 18 18 19 20 19
30 31 28 31 29 35 36 35 37 37 38 41 41 41 41 41 39 35 31 36 35 35 35 36 36 34 32 23 20 22 23 24 25 25 25 24 23 23 19 18 19 20 20 18
36 38 33 32 33 34 36 36 37 38 40 42 43 43 39 38 36 30 34 33 34 35 35 35 33 29 29 23 23 23 27 27 24 25 25 25 24 22 20 20 21 20 17 16
37 36 34 34 35 35 36 37 39 41 45 45 42 40 39 34 34 34 33 33 33 34 34 35 31 30 26 26 26 26 26 26 26 26 25 25 24 22 21 21 20 22 21 19
39 35 35 33 35 36 37 39 41 42 42 43 40 34 34 35 34 33 33 33 33 33 35 34 32 24 24 25 24 27 27 26 26 26 25 23 21 21 22 21 21 23 25 25

GFSCGP_sfc_dewp_006.txt.gz
Dewpoint
25 23 20 19 22 22 21 21 22 22 23 26 24 24 24 20 21 22 23 24 26 29 34 34 33 34 33 33 32 34 33 33 35 36 36 35 35 38 39 41 47 47 45 43
24 23 24 22 24 23 21 25 23 25 26 28 26 25 20 18 20 22 25 25 26 28 31 33 32 32 32 32 31 32 32 33 35 35 35 35 35 36 37 38 40 46 45 43
23 24 24 22 24 22 22 25 25 25 28 28 26 23 18 20 24 25 25 25 26 26 28 31 34 32 32 32 33 32 32 33 35 36 35 36 37 37 37 36 38 41 43 43
25 23 20 25 24 24 22 25 27 27 27 24 26 23 21 19 21 24 25 25 26 27 30 29 30 33 35 34 35 34 35 34 35 37 35 34 32 32 33 34 35 39 42 41
22 20 21 23 23 26 24 28 30 30 28 26 25 22 20 20 19 21 26 28 29 30 30 29 30 30 32 35 37 38 37 37 38 39 39 37 35 35 35 36 35 36 39 41
22 23 23 25 27 30 30 31 31 32 28 24 26 22 21 22 20 26 29 29 30 30 31 32 33 34 36 38 38 40 39 39 40 40 40 39 37 36 36 37 37 39 38 38
31 26 26 30 28 30 30 30 26 23 23 23 27 24 23 24 25 26 27 29 31 30 32 32 32 36 38 38 39 39 39 40 41 41 41 41 41 40 38 36 38 39 36 35
31 27 31 29 30 29 29 31 26 21 21 24 28 23 23 25 27 27 27 28 31 32 33 34 37 38 39 39 39 38 39 38 38 39 40 41 41 42 41 39 39 37 36 35
31 30 34 32 31 31 30 29 31 27 23 23 27 28 26 27 32 31 31 31 34 34 36 37 39 39 39 39 39 39 39 38 39 38 37 35 35 36 33 32 34 34 33 32
35 31 35 35 35 33 31 32 28 29 19 25 26 26 25 28 32 33 33 32 34 35 35 36 38 39 40 39 40 41 40 39 39 34 34 31 30 31 32 31 30 32 34 37
35 34 31 33 33 32 29 31 31 32 30 26 26 28 31 32 33 34 34 35 33 34 35 38 39 40 40 40 41 41 40 40 32 31 33 31 28 29 28 29 30 30 32 34
36 32 28 30 33 34 33 33 33 27 29 29 28 28 32 34 33 34 34 34 35 34 37 39 39 40 40 40 40 40 41 33 32 33 32 31 28 27 28 29 30 31 30 31
34 30 26 25 27 34 33 32 33 33 29 27 22 26 30 31 32 34 34 35 36 38 39 40 40 39 40 40 40 40 39 33 33 31 30 27 26 26 28 28 29 29 29 29
38 33 29 25 26 33 32 32 32 31 23 29 29 29 29 30 33 34 36 37 37 39 39 40 39 39 41 39 40 41 34 35 36 33 28 27 26 27 29 29 29 29 29 29
36 30 32 33 33 34 34 33 34 33 31 28 29 29 30 34 35 36 37 38 38 39 39 39 39 40 40 40 41 37 36 37 36 30 30 32 33 32 31 30 30 32 31 30
38 30 32 32 35 35 34 34 34 33 32 30 30 28 37 38 38 38 38 39 39 39 39 38 40 41 40 40 39 37 37 38 39 38 39 38 37 37 37 37 37 34 31 29
34 30 27 27 33 32 30 31 31 30 30 29 28 31 38 39 39 39 39 39 40 40 38 38 40 41 39 39 37 37 38 40 39 40 39 40 40 39 37 36 34 28 25 22
30 29 29 27 30 25 30 32 32 30 31 31 36 37 38 39 39 40 40 39 40 39 38 39 40 39 38 38 37 38 39 39 39 39 38 37 37 35 30 26 24 21 21 19
37 33 30 27 29 29 31 31 30 29 30 36 37 39 39 40 40 38 38 40 40 39 40 41 39 38 37 36 37 37 36 37 31 25 25 26 26 25 24 21 20 20 19 19
36 32 26 29 26 23 26 29 35 36 29 38 38 39 39 40 36 36 40 40 37 40 39 36 36 36 36 36 34 23 21 23 24 26 25 25 25 23 21 20 20 19 18 18
27 31 24 19 25 25 30 32 36 23 26 35 38 39 40 40 40 41 41 38 38 36 36 36 36 36 36 34 26 19 21 22 24 25 26 24 24 22 21 19 18 18 20 21
25 24 27 27 26 25 35 35 31 33 36 37 37 39 41 41 41 39 38 37 36 35 35 35 36 35 34 20 18 18 20 22 25 25 25 25 24 23 20 19 19 20 21 19
30 30 27 28 28 33 35 35 37 39 36 37 40 42 41 40 38 38 33 34 34 35 34 35 35 33 30 20 21 23 25 25 26 25 25 25 25 22 20 19 20 20 20 17
34 35 32 32 32 33 35 36 37 37 39 43 44 42 42 39 39 34 34 33 34 34 33 34 35 30 29 23 23 25 26 26 25 25 25 26 24 23 21 21 21 20 16 15
37 39 36 35 36 36 36 36 39 41 43 40 40 39 39 36 33 34 32 32 33 33 33 35 36 35 28 25 25 25 26 25 25 25 25 25 25 21 22 22 21 21 21 19
38 36 35 34 35 36 36 40 40 39 39 38 37 35 32 33 34 33 32 31 32 32 36 35 35 26 25 25 25 26 27 25 25 25 25 23 22 20 21 21 21 24 24 23

GFSCGP_sfc_dewp_009.txt.gz
Dewpoint
27 23 19 19 21 21 21 22 23 23 23 27 26 26 26 25 21 21 21 24 28 30 33 33 34 33 34 35 35 31 30 32 36 36 36 36 36 38 39 40 43 48 48 46
25 22 23 23 24 22 23 23 22 25 26 28 27 25 19 19 20 23 25 27 28 30 31 32 33 32 31 32 33 33 33 33 34 34 35 35 34 35 36 39 40 46 47 46
23 23 22 24 24 22 22 23 23 24 27 28 26 23 19 21 24 25 25 26 27 30 31 32 32 31 31 31 32 32 32 32 34 36 35 35 36 36 36 36 37 39 45 47
25 21 23 24 23 25 22 24 27 27 27 23 26 20 21 19 21 24 25 25 26 27 29 30 32 32 33 33 34 34 34 34 35 36 36 35 33 32 34 35 36 36 41 42
23 19 22 22 24 27 26 30 29 30 28 27 24 21 23 22 19 23 27 28 28 29 29 29 29 30 32 34 36 37 39 39 39 40 39 39 38 38 38 38 37 37 38 42
29 24 24 25 27 30 30 31 30 30 28 23 25 23 20 21 23 27 28 29 31 30 30 32 33 35 37 39 39 39 39 39 40 40 41 40 39 39 39 39 39 39 38 39
32 30 31 30 28 31 30 30 23 20 22 22 27 22 22 24 26 28 29 30 30 30 30 32 35 37 38 38 38 38 39 39 39 39 39 39 40 41 40 40 40 39 36 35
30 25 32 32 29 28 29 30 25 18 19 23 27 22 23 26 27 27 29 28 31 32 34 36 38 38 38 39 39 39 39 40 40 40 37 37 37 39 41 41 39 38 35 34
31 29 34 34 34 31 30 29 31 26 22 22 27 28 28 29 33 31 29 32 34 36 37 38 39 39 39 39 39 40 40 40 40 38 35 35 33 34 35 33 34 34 34 35
34 31 34 34 34 34 30 32 28 29 18 22 27 28 26 29 32 32 34 33 34 35 37 38 39 39 39 40 40 41 40 40 39 32 33 33 32 31 31 32 32 32 35 38
33 32 29 31 31 31 31 31 31 31 29 26 22 27 32 31 33 32 33 34 34 35 37 38 39 40 40 40 40 40 40 41 35 32 33 34 32 29 28 30 31 32 35 35
36 31 28 29 32 34 32 32 31 29 27 27 24 27 31 32 33 34 35 36 36 35 38 39 40 40 40 40 40 40 40 38 34 35 34 33 32 28 27 29 30 31 31 31
34 29 24 22 25 30 32 33 33 31 28 27 24 25 31 32 33 35 36 36 37 37 38 40 40 40 40 41 41 40 41 35 35 36 36 33 30 26 28 29 30 31 29 29
37 32 27 25 23 30 30 32 33 31 26 27 29 28 30 32 34 36 37 37 38 38 39 40 40 40 40 41 40 40 38 37 37 37 35 30 26 26 28 29 30 32 32 30
35 30 31 32 32 33 33 33 34 33 32 30 30 30 31 32 36 37 37 38 38 39 39 39 40 39 40 41 40 40 37 38 38 39 32 30 31 32 31 35 37 36 34 33
37 29 31 30 34 34 33 34 34 34 34 33 32 29 31 38 39 39 39 39 39 39 40 40 38 39 41 40 39 38 37 38 39 38 38 38 40 40 40 39 38 36 35 29
33 29 28 24 32 31 24 29 32 32 30 29 27 29 36 37 38 39 39 39 39 38 40 38 38 40 41 39 38 37 37 38 38 38 38 39 39 40 39 37 36 28 24 22
31 29 27 22 30 21 27 31 31 30 31 31 31 36 37 38 39 40 40 40 39 40 37 37 40 40 38 38 37 36 37 37 37 31 27 29 29 27 26 24 22 21 20 19
35 32 28 27 27 26 29 29 30 28 28 33 35 37 37 37 39 38 39 40 37 37 37 40 38 37 37 36 35 28 24 24 25 25 26 27 28 27 23 21 20 20 18 19
34 29 26 28 26 23 26 27 32 35 29 36 38 37 35 37 35 36 42 39 39 38 38 36 36 36 35 36 23 25 24 23 23 26 25 25 24 22 21 21 19 19 19 20
26 30 26 25 25 26 29 31 34 27 28 33 37 37 36 36 39 41 39 38 37 37 36 36 35 35 35 32 24 21 21 23 24 25 25 25 25 23 22 20 19 19 21 21
25 25 23 27 26 21 33 34 30 34 35 36 37 37 38 40 40 39 36 38 36 35 34 34 35 35 34 22 21 19 21 23 25 25 25 25 25 22 20 20 20 20 20 19
30 30 27 27 28 32 32 35 36 37 37 37 38 42 42 39 38 35 35 35 34 34 34 34 34 35 32 23 21 22 25 24 25 24 24 25 25 23 21 21 21 19 19 17
36 36 31 31 32 33 36 37 37 38 38 43 40 39 37 36 34 33 34 33 32 33 32 33 34 34 34 28 24 24 26 25 24 24 24 25 24 23 21 21 21 20 18 16
37 39 35 35 37 37 37 38 39 42 41 38 38 38 38 36 32 31 33 32 31 32 32 34 34 33 32 29 24 25 25 25 24 25 25 24 24 23 23 21 21 22 21 18
39 36 35 35 37 37 36 42 41 39 38 38 37 36 35 33 31 33 33 32 31 31 33 35 33 32 26 25 25 25 27 26 25 25 25 22 21 21 22 20 21 23 23 24

GFSCGP_sfc_dewp_012.txt.gz
Dewpoint
27 22 18 20 21 21 20 20 22 23 24 27 27 26 25 20 21 20 21 23 28 30 32 33 34 35 37 38 35 33 36 38 37 37 37 37 37 37 39 40 41 44 47 48
24 20 22 24 23 21 21 22 20 24 26 28 27 25 20 22 22 24 26 28 29 30 31 32 32 32 34 35 34 33 32 32 33 35 34 35 35 35 36 38 39 41 44 47
23 22 25 23 24 25 24 21 21 23 26 28 26 21 22 20 24 25 26 27 29 30 30 32 32 31 31 31 32 32 32 33 34 35 35 35 35 36 35 35 36 37 40 43
24 21 23 26 24 25 24 24 26 26 27 23 25 19 23 23 21 25 25 25 26 29 31 31 32 31 31 32 33 34 35 36 37 38 37 37 35 35 37 37 37 37 39 40
21 21 25 26 25 27 26 30 30 29 28 27 25 20 20 23 20 23 26 26 27 28 28 28 29 31 37 36 39 39 39 39 40 39 39 40 39 40 41 40 40 40 40 39
30 26 26 26 27 30 30 31 28 29 27 23 25 23 20 23 23 25 28 28 29 30 30 32 34 37 38 38 38 39 39 39 40 40 40 39 38 38 39 39 40 40 40 39
31 30 33 30 29 31 31 27 20 20 21 22 27 23 21 25 26 27 28 28 30 31 32 33 37 38 38 38 39 39 40 39 40 41 38 36 36 36 36 37 38 39 39 35
30 22 31 33 30 28 29 29 23 16 19 23 27 21 25 27 30 31 30 30 35 36 38 38 38 38 38 39 39 40 40 40 41 39 35 35 35 35 35 35 36 37 35 35
31 28 34 34 34 31 30 29 30 26 21 21 26 28 28 30 34 33 33 34 34 35 36 38 39 39 39 39 40 40 41 40 41 39 34 35 35 34 33 33 34 34 35 38
33 30 32 33 33 33 31 32 26 28 18 20 25 26 25 30 32 32 32 32 34 36 37 38 39 39 40 40 40 41 40 40 41 34 35 35 35 35 33 32 33 33 35 38
32 30 26 30 30 30 31 30 31 30 28 21 22 25 31 31 32 32 33 35 35 35 36 38 39 40 40 40 41 41 40 40 41 34 35 36 36 36 32 30 31 34 35 37
34 30 26 26 30 34 33 31 30 24 23 26 23 26 31 32 33 34 35 36 37 37 36 38 39 40 40 40 41 41 40 41 39 35 37 37 37 33 29 28 30 31 30 31
34 29 22 19 24 29 31 33 32 29 28 28 26 25 30 31 32 35 36 37 38 38 38 38 39 40 40 40 41 41 41 41 36 37 37 37 32 27 27 29 30 32 32 32
37 31 25 22 22 27 29 32 32 31 29 27 27 28 30 32 32 35 37 38 38 38 39 39 40 40 40 40 41 41 41 38 38 38 38 32 29 27 29 32 36 36 35 34
34 30 31 30 31 31 32 32 32 32 31 30 29 30 32 34 33 37 38 38 39 39 39 39 40 40 39 39 41 40 39 38 38 39 37 35 35 35 37 37 37 37 36 37
36 28 30 29 32 32 31 33 34 34 33 33 33 33 34 33 38 39 38 39 39 39 39 40 39 38 39 41 40 39 38 38 39 38 37 39 40 39 38 38 38 37 37 37
32 28 28 23 30 29 20 24 30 31 32 31 27 28 32 35 37 36 37 39 39 39 39 35 34 35 39 39 38 37 37 37 38 34 32 34 34 32 31 33 32 26 23 22
31 27 27 23 29 17 26 30 30 30 30 30 30 31 35 37 36 37 39 39 38 37 37 36 35 39 37 37 36 35 30 30 28 28 29 30 30 30 28 23 21 21 20 19
34 31 29 29 26 26 28 27 29 28 27 31 32 36 36 36 36 36 39 39 38 38 38 37 38 36 35 35 29 23 24 25 27 30 30 28 25 23 23 22 21 20 19 20
33 28 25 28 25 22 26 27 31 35 28 35 37 34 35 35 33 36 39 39 38 35 37 37 35 34 35 35 25 27 28 27 25 25 25 24 25 24 22 20 19 19 20 21
26 29 26 26 26 28 30 31 33 26 28 33 36 35 36 34 39 37 36 34 31 35 36 35 34 34 35 35 28 25 22 23 24 25 25 25 25 23 21 20 20 20 20 22
24 21 21 25 26 22 31 33 29 32 35 35 36 35 40 39 37 36 34 32 31 35 34 34 33 34 35 34 24 21 20 23 25 25 24 24 25 23 20 21 21 20 20 19
27 29 29 30 28 32 32 35 35 36 36 36 37 41 39 36 35 34 33 32 32 34 32 33 33 34 34 32 23 30 32 28 25 23 23 24 25 23 21 21 21 21 19 17
34 36 32 32 33 35 38 38 38 39 40 40 39 39 37 36 35 35 34 31 33 32 31 32 33 34 33 33 30 25 25 25 23 23 23 24 23 23 22 22 21 21 18 17
37 36 35 34 37 38 37 38 41 41 40 39 39 37 35 34 34 34 32 32 33 32 31 32 33 32 32 32 30 25 25 25 24 24 24 24 24 23 23 23 21 22 21 18
39 37 35 34 36 38 40 42 42 39 38 39 38 35 35 35 34 33 34 33 32 32 31 32 33 32 32 28 25 25 25 25 25 25 25 21 21 20 22 21 20 22 23 23

GFSCGP_sfc_dewp_015.txt.gz
Dewpoint
29 24 21 21 22 21 20 20 22 23 25 28 27 27 23 23 25 24 25 27 30 31 34 34 37 38 40 45 46 48 46 47 46 44 42 42 41 41 42 41 43 45 45 48
26 23 22 24 24 22 21 21 20 24 26 29 27 24 23 24 26 28 29 30 31 32 32 34 36 38 40 42 43 40 37 38 37 38 40 41 40 40 40 42 44 45 45 45
25 21 26 25 26 27 26 22 23 23 27 28 26 22 24 22 25 27 28 30 30 32 32 33 34 38 39 39 39 36 37 39 40 42 40 41 42 42 40 40 40 41 44 45
23 23 27 28 26 27 25 25 29 27 28 23 27 18 23 24 23 26 27 29 30 31 32 33 34 37 40 40 44 42 42 42 42 44 42 42 39 37 38 40 40 41 44 44
22 26 28 28 26 28 29 31 31 29 29 27 26 21 24 25 23 24 29 30 31 32 33 34 38 40 40 43 43 44 42 43 43 43 41 40 40 40 40 40 40 41 42 43
30 30 28 28 29 31 32 31 28 29 29 25 26 23 25 25 25 27 29 31 32 33 34 35 40 40 40 44 44 44 43 42 43 44 41 41 41 41 40 40 39 38 39 40
31 30 33 32 30 32 32 27 24 28 28 26 27 23 26 29 30 30 31 32 37 39 39 39 39 39 40 41 43 42 42 41 43 44 40 40 41 42 41 40 38 38 37 38
29 24 31 34 31 29 31 30 29 20 24 25 27 23 28 31 32 34 35 35 37 39 40 40 39 40 40 41 42 43 42 42 43 43 42 40 42 40 39 38 39 37 36 38
31 27 33 35 34 31 30 31 31 28 25 29 27 28 29 32 32 34 34 34 36 38 39 39 40 41 42 42 43 44 43 41 42 43 41 40 41 41 39 40 39 36 38 39
34 29 31 32 33 34 32 32 29 32 26 22 24 27 25 30 31 33 34 36 37 37 38 39 40 41 42 43 42 44 44 41 42 43 40 39 40 40 40 38 36 36 38 41
32 31 28 30 31 31 32 31 32 31 31 28 26 25 32 32 32 33 34 37 38 39 39 39 39 41 42 43 43 43 43 42 42 41 39 40 40 39 34 33 34 36 39 38
35 32 27 26 31 34 33 31 29 27 24 30 30 25 30 33 33 34 35 37 39 40 40 40 40 41 42 42 41 42 44 43 41 39 40 40 37 32 31 32 33 34 32 33
35 31 24 18 25 29 32 33 32 31 32 29 29 24 31 33 32 34 36 38 39 40 40 40 40 41 41 40 40 41 42 41 40 39 40 36 32 30 31 36 37 37 36 36
39 32 27 22 20 27 29 31 32 33 32 28 29 27 29 31 32 35 36 39 39 39 40 40 40 40 39 39 41 41 40 40 39 39 38 36 34 33 37 39 38 38 38 37
37 33 32 31 31 32 31 31 32 32 32 31 29 29 31 33 35 35 37 38 38 38 40 40 37 36 37 39 39 38 38 38 39 39 39 38 39 39 39 37 35 35 34 34
36 33 34 32 32 31 31 31 32 33 33 33 33 32 34 35 38 37 36 36 37 39 39 36 34 33 36 38 36 36 37 38 39 37 36 32 33 32 32 33 34 35 32 26
36 34 31 27 29 29 27 26 31 30 32 32 29 29 34 35 36 36 36 38 39 37 35 33 32 34 38 36 34 36 35 35 33 32 30 31 32 32 30 27 24 24 24 23
33 33 31 31 29 23 26 30 30 30 30 31 31 32 33 35 36 37 39 38 37 36 34 32 33 38 36 34 36 33 29 30 30 30 31 32 27 24 24 24 23 23 22 22
35 34 31 29 27 28 28 27 29 30 28 31 32 34 35 36 37 36 38 38 37 36 35 32 37 36 33 35 35 25 25 26 28 28 25 24 25 24 23 23 22 22 21 22
34 32 34 30 27 25 30 27 31 34 29 34 36 37 37 37 35 37 37 38 35 34 31 35 36 34 34 36 36 31 28 29 25 25 25 24 24 24 23 22 22 22 22 21
30 31 30 30 28 30 32 32 33 30 32 36 37 37 37 36 38 38 38 36 33 32 31 36 34 32 33 36 35 31 25 22 24 25 24 23 24 24 23 22 22 21 21 23
28 29 28 29 27 25 31 32 33 36 38 37 38 38 40 39 38 37 37 35 32 32 32 34 32 32 34 35 31 24 24 26 28 26 23 22 24 23 21 22 21 21 22 24
31 32 31 31 32 34 33 36 37 38 38 39 40 39 38 38 36 35 34 33 34 33 33 33 32 33 34 35 33 28 31 33 32 25 23 23 24 23 22 22 23 21 21 23
34 34 34 34 36 34 37 39 41 41 41 40 40 39 39 38 36 34 34 34 33 33 33 33 32 32 34 34 32 32 31 27 25 24 24 24 24 24 24 24 24 21 24 23
37 37 36 35 37 38 38 40 42 41 41 40 39 38 37 36 34 35 34 33 32 33 32 33 33 33 34 34 33 30 27 26 25 25 25 25 26 25 23 23 22 23 25 24
39 38 36 35 38 39 41 42 42 39 38 37 38 34 32 34 35 34 32 32 32 32 32 32 32 31 27 27 25 26 27 26 26 25 25 26 26 26 23 21 21 23 23 23

GFSCGP_sfc_dewp_021.txt.gz
Dewpoint
24 22 20 18 19 16 14 14 13 15 20 21 19 19 20 23 24 26 26 26 26 30 41 40 42 43 45 50 51 52 53 52 48 46 43 42 42 42 42 42 46 47 46 47
18 22 22 21 21 19 19 18 18 20 22 23 22 20 21 23 26 27 28 31 34 36 36 39 42 45 46 46 46 44 43 43 42 41 42 44 45 43 44 45 46 45 44 44
21 23 23 23 23 22 23 22 25 23 23 24 23 21 21 24 26 27 29 30 31 32 33 36 40 44 46 46 44 43 43 44 45 45 42 43 43 43 41 41 42 42 44 44
22 25 24 24 24 26 23 26 27 25 23 18 24 18 22 23 25 27 29 32 32 32 34 36 39 42 46 46 46 44 44 43 44 46 43 44 42 41 42 44 43 44 46 43
24 24 26 25 27 27 26 31 28 28 26 22 21 16 23 22 23 26 31 33 35 35 37 38 40 42 44 47 47 46 43 43 44 45 45 44 44 43 43 43 43 42 40 39
26 28 28 29 29 28 30 30 28 30 27 25 24 22 23 23 26 28 32 35 37 38 38 38 39 40 43 46 46 45 43 41 43 45 46 45 44 43 40 40 39 37 37 37
25 27 30 31 28 30 29 28 29 29 28 27 25 20 29 29 30 31 33 35 37 38 39 38 39 39 41 43 44 44 43 42 42 43 43 43 42 42 41 40 38 39 37 36
24 28 28 31 30 29 29 29 32 22 25 23 25 17 26 30 31 33 33 34 35 37 38 38 39 40 41 42 44 45 44 43 42 43 43 44 44 41 41 40 40 38 36 37
27 26 30 32 32 31 29 30 30 30 32 30 19 25 30 31 31 32 32 34 35 36 37 37 38 40 41 42 43 44 44 42 42 43 44 44 42 42 41 41 38 36 38 36
30 28 26 29 31 33 31 31 32 32 28 18 13 15 19 30 30 32 30 32 34 35 37 37 38 40 40 40 42 44 42 40 41 42 42 40 41 41 39 37 37 37 37 38
28 28 27 25 28 26 29 31 29 25 28 24 20 17 27 26 28 30 29 33 35 36 37 36 37 39 40 41 41 39 39 39 39 39 39 39 37 38 36 35 35 36 37 35
33 31 28 19 28 32 29 28 28 29 21 28 30 24 27 28 30 31 32 34 35 37 36 36 37 40 40 39 38 37 38 37 37 36 35 35 35 36 35 35 37 39 36 37
34 33 26 22 28 32 28 28 28 27 32 26 32 26 26 28 29 29 31 35 35 36 35 36 37 37 37 37 37 35 36 35 34 32 32 33 34 37 38 38 40 38 37 36
40 31 26 24 22 22 22 22 22 25 29 29 28 24 24 25 28 29 31 34 35 35 35 36 37 36 36 35 32 34 34 33 31 31 32 32 36 35 35 37 35 33 32 30
36 31 29 28 24 22 22 23 23 23 25 28 28 25 26 28 30 32 34 34 34 34 35 36 36 36 33 29 32 33 32 31 30 31 30 32 33 32 32 32 31 29 28 25
35 34 35 30 26 23 25 23 23 24 26 26 26 26 28 31 30 33 33 35 36 35 36 37 34 31 28 29 32 31 31 30 30 30 30 30 31 31 32 30 29 26 23 22
36 37 32 31 31 32 34 29 24 24 26 28 28 28 29 30 32 35 36 36 37 37 38 36 30 28 28 30 31 29 28 28 27 28 28 29 30 29 29 25 21 21 23 23
40 36 38 36 35 30 29 27 26 27 26 27 27 28 30 33 36 36 38 38 38 38 37 33 29 28 28 28 30 29 26 27 27 26 28 30 29 28 26 22 20 22 23 23
37 39 36 35 29 28 27 28 28 29 29 29 30 32 34 36 37 34 39 39 37 37 34 30 28 26 25 27 29 27 27 26 24 23 24 26 28 27 24 20 22 23 23 23
36 41 39 35 32 29 30 29 31 32 30 35 36 36 37 37 37 37 40 39 36 32 29 26 26 25 25 25 27 26 25 26 25 22 23 24 26 25 23 22 23 23 23 22
35 36 36 34 33 31 29 32 34 30 34 39 38 40 40 39 39 40 39 34 31 29 27 26 26 25 25 25 25 25 24 24 23 23 24 25 29 28 23 23 23 22 23 26
33 35 34 35 32 29 32 32 35 39 41 41 41 41 39 38 37 34 31 29 26 24 23 23 25 25 25 24 24 22 21 23 28 30 30 34 37 31 23 24 24 23 23 25
30 34 34 33 34 34 34 35 39 41 41 41 40 39 38 34 30 29 27 24 22 21 21 23 23 24 23 22 21 21 23 27 30 32 34 35 31 28 25 26 25 22 22 25
33 32 37 37 33 33 37 40 42 41 40 40 39 36 32 30 27 25 22 19 16 16 17 19 21 20 21 21 20 21 25 30 28 29 29 31 31 28 26 24 21 20 24 25
37 36 37 38 35 37 41 42 42 41 40 38 32 30 29 24 24 20 16 16 17 18 18 21 21 21 21 21 22 24 27 28 26 27 26 27 28 27 28 26 23 23 25 25
36 36 38 38 40 41 42 42 42 40 34 31 28 25 25 23 19 18 19 20 19 20 21 21 20 20 21 22 26 27 28 28 29 27 26 27 28 28 27 24 23 25 24 22

GFSCGP_sfc_dewp_024.txt.gz
Dewpoint
24 21 21 18 18 14 13 11 10 13 19 18 15 16 20 22 24 28 31 32 32 39 41 44 46 49 51 55 54 54 54 54 52 51 49 49 50 50 50 50 52 51 51 49
16 19 22 18 18 17 16 17 17 19 20 20 19 19 21 23 26 27 29 32 37 37 40 43 46 48 49 49 49 48 47 49 48 47 48 50 50 50 50 50 48 49 49 48
24 22 20 20 20 21 19 20 25 21 21 22 21 20 21 24 26 29 31 33 34 35 37 41 44 48 50 49 49 46 47 48 49 50 47 48 48 49 47 48 47 48 50 49
23 22 21 21 22 25 20 28 26 23 22 18 22 17 21 24 25 28 30 33 34 34 36 39 43 46 49 50 51 48 47 46 47 49 48 49 47 45 47 47 46 45 48 47
23 23 24 24 27 26 25 28 26 26 25 23 19 20 23 24 24 28 32 34 36 38 39 40 42 45 47 51 51 50 47 46 48 48 50 49 48 47 46 46 46 45 45 44
25 26 28 28 27 26 27 29 28 27 27 30 22 20 25 22 25 30 34 36 38 38 39 39 41 44 46 51 50 50 47 45 47 47 48 47 46 46 45 45 44 43 42 41
25 26 29 28 28 30 28 28 33 34 32 32 26 21 29 28 30 32 35 36 38 40 41 40 40 40 43 46 48 47 47 45 47 48 48 48 48 48 46 44 43 41 39 39
24 27 27 29 29 27 28 27 37 26 29 28 24 17 28 30 32 33 34 35 36 38 41 41 42 42 43 45 46 47 46 45 44 47 47 47 47 45 43 43 40 39 39 39
25 27 28 29 29 28 28 30 27 30 35 33 18 29 29 30 31 32 32 33 36 38 39 39 40 43 43 44 45 47 45 43 43 45 46 46 45 45 43 41 41 40 40 37
27 28 25 25 28 33 26 27 30 37 30 22 14 18 28 30 31 32 31 31 35 36 38 38 38 41 42 43 44 47 44 41 42 42 43 40 41 41 41 40 40 39 40 39
28 27 26 24 27 22 26 27 28 24 31 28 25 20 26 27 29 31 30 32 36 37 37 38 38 41 42 44 44 43 41 39 39 39 40 40 39 39 39 39 40 41 40 39
30 30 36 20 24 27 26 27 27 36 27 35 33 24 27 28 31 32 32 34 35 36 37 37 38 40 40 41 41 39 40 39 38 37 36 36 38 40 39 38 37 39 40 39
34 34 33 24 28 30 23 25 25 30 36 30 30 26 27 27 34 32 32 33 35 37 36 36 38 39 37 38 37 36 38 37 35 32 33 34 36 37 36 37 38 38 37 35
41 30 27 28 22 22 21 20 22 23 33 31 30 26 25 26 31 31 32 34 35 35 35 36 37 37 37 36 33 33 35 36 34 31 32 34 36 36 35 36 37 36 34 32
37 33 29 28 22 21 21 21 22 22 24 26 27 22 25 29 30 32 36 36 36 36 37 37 37 37 34 32 32 33 35 33 34 31 31 33 35 34 35 35 35 34 32 28
36 37 38 33 23 22 24 23 25 23 22 22 26 25 27 30 35 35 35 35 35 38 38 36 36 34 31 30 30 33 33 32 33 31 31 31 34 34 34 34 34 32 28 27
37 41 37 34 32 33 35 33 24 24 25 26 29 28 28 34 35 35 36 37 38 37 37 36 35 33 30 30 28 28 31 32 31 30 29 31 35 32 32 31 29 26 27 27
41 39 39 35 35 28 27 26 26 26 26 27 26 28 33 34 35 33 38 39 38 37 35 35 32 30 29 27 26 29 29 31 31 31 32 28 34 32 31 31 28 27 27 27
37 41 36 35 30 28 26 29 30 29 29 31 33 35 35 35 35 33 38 38 37 36 34 31 29 28 28 27 27 25 25 24 25 27 32 34 31 29 31 29 27 26 27 27
36 43 40 35 30 26 33 29 32 31 30 37 37 38 38 36 35 37 37 37 32 30 28 26 26 25 27 27 26 25 23 22 24 30 32 31 29 28 30 31 29 27 27 26
35 38 37 33 30 32 30 32 33 29 35 41 40 39 38 37 38 37 35 32 28 25 23 22 22 23 23 25 24 22 20 20 23 28 31 33 36 37 36 35 29 27 27 27
33 34 33 33 33 28 32 32 35 40 42 41 40 39 38 37 36 32 28 26 23 19 17 17 18 19 21 21 21 19 18 20 25 30 31 31 35 35 34 31 28 28 26 27
33 38 37 35 35 39 39 40 43 43 41 41 40 38 36 34 29 26 24 23 18 17 16 17 18 20 21 21 21 20 22 25 29 28 29 31 34 35 33 33 29 25 24 26
31 31 41 39 34 33 39 43 41 40 40 39 39 35 31 30 26 25 20 17 18 18 18 18 19 19 21 21 21 23 28 28 27 28 28 28 29 30 30 28 26 25 27 26
39 36 37 37 36 38 42 42 42 40 40 38 32 30 27 26 24 20 19 18 20 21 20 20 21 21 22 22 25 27 28 29 29 29 28 28 30 30 29 27 26 26 27 25
37 35 38 39 41 40 42 42 41 39 36 32 26 26 25 22 19 21 21 20 20 20 20 21 22 22 24 26 28 28 28 29 29 28 27 29 29 30 28 26 25 27 26 24

GFSCGP_sfc_dewp_027.txt.gz
Dewpoint
28 25 23 18 19 17 17 17 17 19 20 18 18 16 22 26 25 25 36 39 41 43 44 45 46 47 47 46 46 46 47 47 46 45 45 45 45 46 46 48 46 45 47 47
24 24 22 21 22 21 19 20 24 21 21 20 19 20 24 26 30 34 36 37 39 41 44 46 48 48 49 45 45 45 45 45 45 45 46 46 46 46 46 48 47 48 47 46
24 24 25 22 27 25 26 26 25 23 23 23 22 21 24 27 30 31 33 35 37 40 43 44 45 46 46 45 44 44 45 45 46 45 45 46 46 46 45 45 44 46 46 45
25 24 24 25 27 26 26 30 28 26 24 21 21 18 24 26 29 31 33 35 36 39 42 44 45 45 46 46 46 44 44 44 45 45 45 45 45 43 45 44 44 43 43 42
27 26 29 29 28 27 30 32 29 29 27 26 25 21 22 27 29 32 34 35 37 39 40 42 44 45 46 46 45 44 44 44 45 46 46 46 43 44 44 44 43 42 42 41
26 28 29 29 29 29 28 31 31 30 28 26 29 26 26 24 30 34 36 37 37 37 39 41 44 45 46 46 45 44 44 44 45 45 44 43 43 44 44 42 41 41 40 40
27 29 30 31 30 32 30 30 29 28 28 26 34 30 35 34 33 36 37 38 38 38 38 38 39 41 44 42 44 43 44 43 44 46 45 44 44 43 42 41 40 38 38 38
28 27 28 30 29 29 30 29 28 24 26 27 27 27 29 33 35 37 37 37 38 38 37 37 39 39 41 42 43 43 43 42 44 45 44 44 42 43 41 39 38 38 37 37
32 28 30 29 30 30 28 29 28 28 29 26 25 28 31 32 33 34 34 36 36 37 37 37 39 40 41 41 43 43 39 40 42 42 41 40 41 41 38 37 37 38 39 37
30 28 27 28 30 34 28 29 28 31 23 22 22 29 33 31 32 34 32 34 36 37 37 37 39 40 41 41 42 41 39 39 38 37 37 36 36 37 38 38 39 39 39 38
32 32 28 26 26 26 29 29 29 28 29 24 22 22 31 35 35 35 34 36 36 35 37 38 39 40 40 41 41 39 37 37 35 34 35 35 38 38 38 37 37 38 38 39
32 32 26 26 28 28 28 30 30 27 25 28 27 24 28 34 34 33 32 34 35 36 36 36 38 38 38 37 37 37 37 35 34 33 33 33 38 37 35 35 35 36 36 38
36 30 27 26 30 32 26 27 30 34 30 25 18 21 29 34 35 34 32 35 36 36 35 37 37 37 37 37 35 34 35 33 32 30 31 31 33 35 32 34 35 36 35 34
40 32 28 26 25 24 24 23 24 31 27 27 27 28 27 35 36 35 36 37 36 37 37 37 37 37 36 35 32 31 34 33 32 30 30 31 32 34 33 34 34 34 33 31
37 31 32 32 26 25 24 23 24 24 25 24 25 27 29 33 35 36 36 37 38 38 37 37 36 35 35 32 31 31 34 33 33 31 31 32 33 35 34 34 34 34 31 28
38 32 30 28 30 29 26 27 29 27 26 26 27 27 34 36 36 36 37 38 38 37 37 36 36 35 34 30 29 29 30 34 33 30 32 33 35 34 35 34 33 33 27 24
38 32 28 27 32 31 26 29 28 27 28 28 26 30 35 34 34 37 38 38 38 38 36 35 35 34 30 29 27 27 29 30 30 31 34 35 36 37 37 37 35 28 24 24
34 32 30 23 25 11 31 29 29 29 29 30 32 35 35 35 37 39 38 37 36 37 36 35 33 30 28 28 27 27 26 26 27 32 31 34 36 37 37 36 33 27 25 23
40 32 26 27 25 26 28 31 31 29 31 38 37 37 37 36 35 37 37 37 36 36 34 33 29 28 28 26 26 25 24 23 24 29 32 34 35 35 36 34 33 32 27 26
39 35 28 23 21 15 28 32 33 33 27 39 39 39 37 36 29 33 37 36 36 32 25 22 20 22 22 23 24 23 21 21 24 30 31 33 36 36 35 34 33 33 28 28
28 31 28 22 21 27 34 34 36 25 28 40 39 39 38 34 35 37 38 32 26 24 18 19 18 19 20 22 22 22 20 21 27 30 30 31 35 36 36 35 32 28 26 28
27 27 27 29 27 21 36 36 28 35 41 40 38 39 37 37 38 36 28 26 23 18 18 19 19 20 20 19 22 21 22 27 29 30 30 30 32 35 35 35 32 31 26 25
29 33 30 30 28 35 38 38 42 42 40 39 38 39 38 38 31 27 26 22 20 20 19 20 19 21 22 23 22 26 28 28 29 29 29 29 29 30 32 33 33 25 24 21
32 37 32 33 35 37 41 41 41 40 39 39 40 40 34 30 28 27 21 19 20 20 21 20 20 21 23 24 26 28 29 30 29 28 29 28 29 30 30 28 25 24 21 19
35 37 34 33 36 41 42 41 41 41 41 40 39 30 28 27 24 22 21 20 21 20 20 21 23 24 24 28 30 29 29 30 29 28 28 28 27 28 27 26 23 25 23 21
39 35 33 30 38 38 41 42 41 40 39 34 28 28 26 23 22 22 20 20 21 23 24 24 25 26 28 30 30 30 30 30 29 28 27 26 25 24 26 26 25 27 26 27

GFSCGP_sfc_dewp_030.txt.gz
Dewpoint
29 24 20 18 18 18 19 19 18 19 20 17 18 21 25 29 37 39 41 42 43 44 45 46 47 49 45 46 47 50 52 49 48 48 48 47 45 46 47 46 48 47 46 46
25 22 22 21 25 27 23 23 22 21 23 18 21 22 28 33 36 40 40 41 43 43 44 44 47 48 48 50 47 47 45 45 44 45 45 46 45 47 46 45 46 45 43 43
24 22 24 28 27 25 29 26 26 23 25 23 22 22 29 32 34 37 39 42 43 43 44 44 45 48 47 45 45 44 44 44 45 45 45 45 45 45 44 44 43 43 42 41
23 24 26 29 27 27 29 31 28 25 23 17 22 18 24 30 32 34 37 40 42 43 44 44 44 45 44 44 44 43 44 44 45 45 45 44 43 41 43 43 42 41 41 40
25 29 29 28 28 28 28 30 29 29 26 25 25 21 23 31 31 34 36 39 41 43 43 44 44 45 45 44 43 44 44 44 45 46 45 45 43 44 44 43 40 39 40 40
26 30 29 29 30 30 29 31 33 31 29 24 28 25 23 28 31 35 36 38 40 41 42 44 45 45 45 45 44 44 44 44 45 45 45 45 43 43 41 40 38 39 39 38
28 30 30 31 30 30 29 31 27 26 26 25 32 31 31 32 35 36 37 38 38 39 40 43 44 44 45 44 44 44 43 44 44 44 43 43 42 41 39 38 37 37 36 37
28 26 28 30 29 28 29 31 26 22 23 24 28 28 30 36 37 38 37 37 38 37 38 40 40 41 42 42 42 42 42 43 44 44 41 41 42 40 39 37 37 37 37 37
29 27 30 30 30 30 29 27 29 29 28 24 27 29 31 34 36 36 37 39 39 38 37 39 40 40 41 42 42 39 40 41 40 40 38 38 40 38 37 37 38 38 38 37
31 26 29 29 29 31 27 29 27 29 20 22 23 28 31 34 34 36 35 35 36 37 38 39 39 40 41 41 41 40 39 37 36 35 35 35 37 38 38 38 38 38 37 38
33 30 27 30 26 25 27 28 29 28 27 23 21 22 29 34 36 34 34 36 36 37 38 38 38 38 38 38 37 38 37 35 33 33 34 36 38 38 37 36 36 37 37 36
33 30 25 26 27 28 27 29 30 25 23 26 25 23 32 33 34 34 34 35 36 36 37 38 38 37 37 36 35 37 36 34 32 32 32 32 38 37 36 35 35 35 34 36
33 29 25 26 29 31 25 28 33 31 27 23 18 20 30 34 35 35 36 36 37 37 37 37 37 36 36 35 34 32 35 32 32 31 31 31 32 36 35 34 35 35 36 34
40 31 26 24 25 25 21 23 31 29 25 25 25 25 28 34 35 35 36 38 38 37 37 36 36 36 36 35 32 31 33 34 34 32 30 31 32 32 35 34 36 37 37 37
36 30 32 31 27 26 24 23 24 24 26 25 25 27 32 35 35 36 38 38 37 37 37 36 36 36 35 33 30 29 30 33 33 31 32 34 34 34 35 34 36 38 38 36
38 30 29 24 32 31 24 26 29 29 26 25 29 32 36 36 38 38 38 38 37 37 36 36 35 34 34 31 29 28 29 30 31 32 34 35 36 36 36 37 37 38 38 38
36 30 26 19 31 28 22 27 29 26 28 27 25 32 34 36 37 38 38 37 36 37 36 35 33 33 31 28 27 26 26 27 28 32 33 35 35 36 36 37 37 38 37 30
32 31 27 19 20 5 23 31 28 33 35 35 35 35 35 36 38 38 37 35 35 35 34 33 31 27 27 26 25 25 23 24 27 31 33 34 35 35 35 36 36 33 31 32
36 29 26 16 23 20 25 30 29 27 34 37 36 36 35 36 37 37 36 36 36 36 33 25 22 23 22 22 23 23 22 22 27 30 31 32 34 36 35 34 33 32 34 34
37 31 24 25 12 8 23 31 32 31 27 39 39 37 36 35 27 31 36 37 36 23 20 18 18 20 20 20 22 22 21 23 28 30 30 31 35 35 35 34 35 35 35 28
27 25 25 16 15 24 29 34 33 25 26 39 39 38 36 33 33 34 38 32 24 18 19 20 19 19 19 21 23 22 23 26 29 30 30 30 31 34 34 34 33 32 27 27
27 26 24 23 16 20 33 34 28 32 39 39 39 38 37 36 37 36 28 24 20 19 19 20 20 20 21 22 24 25 26 27 29 29 29 29 29 30 34 33 33 29 25 24
26 28 28 29 29 32 36 35 39 41 39 38 38 38 38 37 31 26 23 21 21 20 19 20 20 22 23 24 27 27 28 28 29 29 28 28 29 30 29 29 25 24 24 20
32 37 32 32 33 36 39 41 40 40 39 40 40 39 37 29 26 22 20 20 20 19 19 20 22 23 25 28 29 29 29 29 29 28 27 28 26 28 27 25 25 23 20 18
31 36 34 32 38 41 40 40 40 40 40 41 40 33 28 25 22 21 19 19 21 22 23 24 25 26 27 29 30 31 30 30 29 28 27 26 25 26 26 26 24 25 23 21
38 35 32 31 36 37 38 41 41 41 40 39 29 26 23 23 21 20 20 23 23 25 25 26 27 28 29 29 30 30 31 31 29 29 27 26 24 23 25 25 25 26 27 28

GFSCGP_sfc_dewp_036.txt.gz
Dewpoint
27 21 17 18 18 18 18 15 16 18 20 24 32 34 36 40 42 43 43 43 44 44 45 47 49 51 52 54 56 58 58 58 54 53 49 47 46 43 43 42 42 42 42 40
24 21 22 28 26 25 21 19 20 23 24 28 32 32 36 39 41 43 42 42 42 43 44 47 48 51 51 52 52 50 46 45 45 45 45 44 43 43 42 42 41 41 40 39
22 23 27 28 29 27 28 23 24 22 24 26 27 27 33 37 41 42 43 42 42 43 45 48 48 47 46 43 42 42 43 43 44 45 45 45 45 44 42 41 40 40 39 39
25 30 27 26 25 28 25 29 26 23 19 19 23 19 29 34 38 41 42 42 42 43 45 46 44 43 42 43 43 43 43 43 44 45 43 42 41 41 42 41 40 38 38 39
26 28 27 25 27 26 27 29 28 26 25 22 23 24 27 36 37 38 40 42 42 44 45 44 43 42 43 43 43 43 44 45 45 45 44 43 43 43 42 39 37 37 37 39
28 30 28 27 29 28 29 31 31 31 28 23 27 23 24 31 35 37 39 41 42 43 43 43 43 43 43 44 43 43 44 44 45 44 44 43 43 41 38 37 37 37 37 37
28 28 29 30 28 30 31 29 25 25 24 24 28 27 27 30 34 38 39 40 42 42 43 43 44 43 44 43 43 43 43 43 43 43 43 43 42 40 38 37 36 35 36 36
26 24 28 28 28 27 30 27 26 22 23 24 28 27 29 35 35 38 39 40 41 41 42 43 45 44 43 42 42 42 43 42 41 41 41 41 40 38 37 36 37 37 36 36
26 25 29 28 30 29 29 25 27 28 27 23 26 29 34 36 37 37 38 38 39 40 40 40 42 41 41 40 39 41 41 42 41 39 40 40 39 38 37 37 36 37 37 37
30 26 27 27 29 29 25 30 26 26 18 19 22 27 29 33 35 36 36 37 38 38 39 39 39 39 40 38 38 39 40 38 39 36 35 34 35 36 37 37 36 37 37 37
30 26 24 29 24 25 27 27 28 28 26 21 18 23 30 34 36 36 37 39 37 38 37 36 36 36 36 35 35 37 36 34 34 33 34 34 34 36 37 37 37 37 37 36
32 28 25 24 27 30 27 27 25 19 17 25 23 21 30 34 36 37 36 37 37 37 36 36 36 35 35 34 34 36 36 36 34 33 33 32 32 34 35 36 36 36 35 35
30 26 23 22 23 27 25 30 29 27 26 23 18 18 33 35 35 36 35 36 37 36 36 35 34 34 35 35 33 32 33 34 33 32 31 30 32 32 32 32 34 34 34 35
36 29 24 21 19 25 20 26 29 26 23 23 23 20 29 33 34 35 36 36 36 36 35 35 35 35 35 35 31 29 29 30 29 29 31 32 32 33 33 33 33 34 35 35
31 27 29 27 28 25 21 21 28 25 24 21 21 24 25 33 34 35 36 37 36 36 36 35 34 34 32 28 27 26 26 27 28 30 31 32 34 34 34 34 35 35 35 36
34 28 27 25 30 28 25 22 23 26 24 26 27 26 33 35 37 37 37 37 36 35 35 34 32 29 26 25 24 24 24 25 27 30 31 33 34 34 33 34 34 34 34 34
31 28 24 20 26 20 16 21 23 25 28 26 26 26 35 35 36 37 37 37 35 34 34 34 27 25 24 24 23 21 23 25 25 29 31 33 33 32 33 34 34 32 30 32
29 27 21 14 17 3 15 26 26 26 27 29 31 32 35 35 36 37 38 37 34 34 34 29 25 23 23 22 21 22 22 23 26 28 30 30 30 31 33 32 32 31 33 35
32 27 22 15 17 14 14 28 30 27 25 34 32 34 35 37 36 36 38 35 33 34 32 23 22 21 20 19 21 22 22 21 25 28 29 29 30 31 31 30 31 32 34 33
31 27 23 19 9 4 17 28 32 30 25 33 35 34 35 36 30 33 37 36 35 30 19 18 19 19 20 20 22 22 21 24 27 28 28 30 29 28 28 29 33 32 33 32
29 26 19 13 12 19 23 30 32 24 23 36 36 35 36 34 35 34 37 36 24 19 19 19 20 20 21 22 23 23 24 25 27 28 29 29 28 28 29 31 32 33 31 28
29 28 28 22 14 18 28 32 27 31 33 37 37 36 36 35 34 36 30 21 20 20 19 20 21 22 23 24 25 25 26 27 28 29 29 28 29 28 29 30 33 27 26 24
25 27 26 27 27 29 30 32 35 35 35 37 38 37 37 36 37 29 24 24 21 19 19 21 22 23 26 26 27 27 28 29 29 29 28 28 29 26 27 27 26 25 24 21
32 31 28 28 27 31 33 34 39 39 38 38 39 39 39 37 32 26 22 20 19 21 22 23 24 25 26 28 29 29 29 30 29 29 29 29 28 26 27 27 25 24 22 18
31 32 30 30 32 34 37 39 37 39 39 39 40 39 37 31 25 21 21 20 21 23 23 25 26 26 27 29 29 29 29 30 29 30 29 30 30 27 26 26 26 26 25 22
34 32 30 28 31 32 32 37 39 39 40 39 33 29 26 25 25 23 21 23 24 23 25 26 27 27 29 29 28 28 29 29 30 29 29 30 30 27 25 25 25 27 26 27

GFSCGP_sfc_dewp_039.txt.gz
Dewpoint
29 24 20 17 18 16 17 16 16 19 22 32 34 35 38 41 43 44 44 45 46 47 49 53 55 57 59 60 60 59 59 59 55 52 51 48 48 44 44 43 44 44 43 43
26 23 22 28 25 23 21 21 22 24 26 32 33 35 39 41 42 43 44 45 46 49 50 52 53 55 58 59 59 59 55 54 51 48 47 47 45 44 43 43 43 43 43 42
26 23 27 29 28 27 27 25 24 22 27 29 29 29 36 40 42 43 44 45 47 48 48 48 49 51 53 53 54 55 54 51 50 48 47 46 46 44 43 42 41 41 41 41
28 29 27 26 27 28 27 27 25 22 21 20 25 16 30 38 41 42 43 44 45 46 46 45 44 44 45 46 46 46 47 46 47 48 47 47 44 43 45 44 41 40 41 41
27 28 27 27 27 28 28 31 28 26 26 24 24 21 27 38 40 41 42 43 43 45 45 43 43 43 44 46 47 47 46 47 48 48 48 47 46 45 43 42 42 42 41 40
29 30 29 28 31 29 34 32 32 31 30 26 26 23 23 34 37 41 42 42 43 44 44 43 44 44 44 47 47 47 46 46 47 47 47 47 47 44 42 42 41 41 40 39
29 29 29 32 29 31 32 30 27 27 29 25 28 28 30 30 35 42 41 42 43 44 44 44 44 43 44 45 46 46 46 45 46 46 47 47 46 45 43 41 40 39 38 38
26 22 27 29 28 29 30 30 31 21 26 26 28 27 28 35 35 40 41 41 43 43 44 44 44 45 45 46 46 45 44 44 44 44 44 44 43 42 41 40 40 40 39 39
29 25 28 30 31 30 30 26 29 29 28 26 24 28 32 36 36 39 40 41 42 43 44 44 45 46 44 44 43 45 44 43 42 42 43 43 42 42 41 41 41 40 41 39
31 27 27 27 29 31 29 31 28 29 22 17 19 25 26 34 35 38 39 40 41 41 41 42 42 43 42 41 41 43 43 42 42 39 39 37 37 37 39 40 40 40 40 39
30 31 28 28 25 28 29 29 29 28 27 20 20 18 32 34 36 37 39 40 40 40 40 39 38 38 37 37 39 40 40 37 36 36 36 37 36 37 38 37 37 37 37 36
31 31 28 25 27 30 28 28 28 24 19 26 26 21 29 35 37 38 38 39 39 39 38 36 36 36 36 35 38 37 38 37 35 35 35 34 35 35 34 34 34 37 36 37
33 30 26 24 25 28 27 30 28 27 28 25 30 20 30 35 36 38 38 38 38 37 36 35 35 35 35 34 34 33 35 32 31 30 30 34 34 33 33 34 35 35 34 34
37 29 28 25 23 27 24 30 27 28 28 24 25 21 23 33 35 36 37 38 37 37 36 35 35 35 35 33 31 29 30 29 28 28 31 34 34 34 34 35 35 34 35 34
34 29 28 27 28 26 22 23 29 26 26 26 23 23 24 28 35 36 37 37 36 36 35 35 35 34 32 30 30 28 27 27 28 27 31 33 35 35 34 33 35 34 35 35
34 31 28 27 29 28 25 24 24 28 26 25 26 25 28 33 36 36 36 36 36 36 35 34 33 31 27 26 25 25 25 26 28 27 31 34 35 33 32 34 34 34 34 32
32 32 28 25 24 21 23 24 25 25 26 27 25 26 35 35 36 36 37 37 36 35 35 34 30 27 26 25 24 22 23 26 26 27 31 32 32 31 32 32 32 33 34 33
30 27 24 24 21 17 20 27 25 25 26 27 29 32 34 35 37 37 38 38 37 35 34 33 27 25 25 24 22 24 23 24 25 29 30 29 30 31 31 30 30 33 33 34
31 29 25 26 19 17 15 22 28 29 25 30 29 32 35 37 37 37 38 38 37 35 35 30 25 24 23 21 22 23 23 23 25 28 28 29 30 30 29 29 31 31 31 33
30 30 31 24 21 17 20 23 32 30 28 30 34 35 36 36 36 35 39 37 34 35 25 21 22 21 22 22 23 23 23 24 26 28 29 30 30 29 29 30 30 31 32 31
32 31 30 21 26 24 24 26 32 24 26 33 36 36 37 36 39 36 39 36 34 23 19 20 21 21 22 25 25 24 24 26 28 29 30 30 30 29 29 29 30 32 32 31
30 31 30 24 25 24 28 32 32 35 34 35 38 37 39 37 36 37 36 27 20 20 21 21 22 22 24 26 27 25 26 28 30 30 30 29 30 28 27 28 29 30 28 28
28 32 31 29 30 33 31 35 36 36 35 37 38 38 38 37 37 31 25 21 23 21 20 22 22 24 26 26 28 28 29 29 29 30 30 30 29 29 27 27 27 26 27 28
32 31 32 31 30 31 34 35 36 39 39 39 40 40 38 37 35 25 23 20 20 21 22 23 23 24 24 27 29 29 29 30 29 30 30 29 27 29 29 26 26 25 26 26
32 33 31 31 33 34 34 38 39 38 40 40 40 40 39 34 26 23 21 23 24 25 24 24 25 25 25 29 29 28 28 29 28 29 29 29 29 30 30 26 25 25 27 28
34 33 33 33 33 33 34 37 41 40 40 40 36 30 28 25 25 28 28 26 26 24 23 25 26 26 27 28 27 27 28 28 28 28 28 30 30 30 29 26 24 28 28 27

GFSCGP_sfc_dewp_042.txt.gz
Dewpoint
29 23 16 14 15 15 15 15 11 15 22 21 21 26 30 42 43 42 44 45 46 46 50 54 57 58 58 60 61 60 60 60 60 58 53 48 46 46 46 45 46 46 45 46
24 20 25 24 21 18 16 17 19 23 23 26 29 30 33 38 42 43 44 45 46 49 52 55 57 58 58 59 60 60 59 60 58 54 50 48 47 46 45 45 46 45 46 44
21 25 28 25 23 21 23 21 23 20 26 29 27 28 33 38 42 44 45 46 47 50 53 55 56 58 59 59 59 57 56 55 52 50 48 48 48 46 44 44 43 44 43 41
26 27 26 25 25 25 21 26 23 23 22 16 26 13 30 36 37 41 44 46 48 50 50 50 49 52 54 55 54 50 50 50 50 50 47 47 44 43 46 47 44 43 42 39
26 25 25 23 25 26 26 27 25 24 23 22 22 18 26 35 35 37 43 46 48 48 46 42 42 44 44 48 49 49 48 47 48 49 48 48 47 47 46 45 45 44 42 40
28 30 28 28 30 28 32 30 30 29 27 22 20 22 10 24 30 38 42 46 47 46 43 40 42 43 44 49 49 49 47 47 48 49 49 49 47 44 43 42 40 38 37 37
27 28 29 30 29 32 30 26 22 23 24 21 28 25 19 29 34 38 42 45 46 44 42 42 42 42 44 47 48 48 47 46 48 48 48 47 45 42 39 37 35 36 34 35
21 24 25 29 29 25 27 24 23 12 19 22 28 22 27 34 36 37 42 44 44 42 42 42 42 43 45 46 47 46 46 45 46 45 44 43 39 38 37 38 39 38 38 39
25 23 28 29 31 30 29 26 30 29 31 28 20 25 30 34 35 36 42 42 41 41 42 42 44 45 46 47 48 48 46 44 43 43 43 42 42 40 39 40 41 40 40 36
30 26 27 28 29 31 30 30 27 29 22 12 11 17 16 30 34 36 40 40 40 41 42 43 44 46 46 46 45 47 44 42 41 40 40 38 38 38 40 41 39 35 32 30
30 28 28 28 26 24 30 28 27 25 28 17 14 11 30 30 33 36 39 40 40 41 43 44 44 45 44 42 42 42 41 39 38 37 37 38 37 36 37 33 30 30 31 30
32 32 31 26 28 29 28 27 26 23 19 29 28 13 26 33 37 37 37 39 40 42 42 42 42 41 39 38 39 39 39 38 37 36 35 32 32 31 30 28 29 32 31 32
32 31 28 26 27 30 27 28 27 27 29 24 30 14 26 32 35 37 38 39 41 42 40 39 39 38 37 37 37 36 36 34 33 30 28 29 29 28 28 29 32 32 32 31
36 32 28 25 22 26 26 27 27 24 26 19 21 11 20 26 31 34 37 39 40 40 39 38 37 37 35 34 34 32 34 31 28 24 24 26 28 30 31 32 32 33 32 33
35 30 28 26 25 25 23 23 27 24 23 25 15 12 11 18 24 29 35 39 39 39 37 37 36 36 35 33 33 33 30 26 25 23 22 25 31 33 32 32 33 33 33 33
35 32 31 28 28 27 25 24 23 26 25 24 22 20 22 25 30 32 37 38 38 38 37 36 36 34 32 32 30 27 24 24 26 24 24 27 32 31 31 32 33 32 32 32
35 35 31 24 25 24 32 27 24 22 25 26 24 24 26 28 30 33 36 37 37 37 37 36 34 32 30 29 25 22 23 26 25 24 24 29 30 29 30 30 30 31 32 32
34 33 33 31 27 29 15 23 22 24 24 24 25 25 26 28 33 35 36 37 38 37 37 35 32 29 26 24 23 24 23 24 24 23 25 27 28 28 29 30 30 31 31 32
31 32 32 36 21 18 12 17 19 22 18 25 25 24 30 35 36 37 38 38 39 38 37 34 30 26 24 22 23 22 22 21 21 23 25 26 28 28 28 29 30 31 31 31
31 33 35 31 34 32 21 27 32 30 24 29 30 31 34 36 36 23 39 39 39 37 34 30 25 23 22 23 24 22 20 20 22 24 26 27 28 28 28 29 29 30 30 29
37 37 37 33 36 28 23 24 33 24 24 31 33 33 37 35 35 38 40 40 37 34 28 24 22 23 23 24 24 21 18 21 24 27 28 27 27 28 29 28 28 28 29 30
32 36 36 33 35 30 26 32 31 34 35 33 36 36 39 39 39 39 40 37 31 24 21 24 23 22 23 23 23 17 18 21 27 28 27 27 28 28 27 29 28 27 28 27
31 33 34 31 31 32 32 34 37 37 37 37 38 37 39 40 38 37 35 31 25 23 22 22 22 23 24 23 23 22 23 26 26 27 27 29 28 27 26 28 27 25 25 26
32 32 34 32 27 30 33 34 35 36 37 37 38 39 39 39 38 35 28 25 24 24 27 30 24 21 21 23 25 25 26 27 25 26 28 28 28 26 26 26 26 25 26 26
33 34 32 32 31 30 32 36 39 40 41 41 41 41 41 39 35 27 25 26 30 34 28 25 22 22 21 23 25 25 25 27 26 27 27 28 28 28 27 26 26 25 26 26
33 33 35 35 35 36 35 40 42 41 41 41 38 36 35 33 27 28 31 35 34 31 25 24 25 24 23 24 24 25 26 26 27 27 27 28 29 28 27 27 25 28 27 28

GFSCGP_sfc_dewp_045.txt.gz
Dewpoint
29 25 20 20 19 16 15 9 9 9 11 11 12 18 26 33 33 36 39 40 41 43 46 51 52 53 51 57 59 60 60 60 60 59 56 55 51 48 47 46 47 47 47 47
25 25 23 16 14 13 12 16 12 14 14 21 15 18 25 33 34 34 37 41 43 45 48 51 54 56 57 59 60 59 58 59 59 56 53 51 48 46 46 46 48 47 47 45
29 25 25 19 16 15 16 16 24 17 20 18 20 20 28 31 34 37 38 40 42 45 49 53 55 57 57 57 59 58 58 56 53 50 48 48 47 47 45 46 45 46 45 42
29 31 23 18 17 18 19 23 19 19 21 16 22 13 24 31 34 39 41 43 44 47 50 53 55 57 59 59 58 56 52 49 48 48 46 47 43 43 47 46 45 44 43 41
23 22 20 18 23 23 26 24 22 20 17 19 20 13 24 30 30 35 40 43 46 49 50 50 51 52 52 54 51 49 48 47 48 48 47 47 46 47 46 46 46 45 44 40
35 28 25 27 26 24 28 26 24 23 21 22 17 18 14 24 26 32 38 43 46 47 47 44 46 46 47 51 50 49 47 46 48 49 49 48 48 44 43 43 42 39 37 35
24 23 28 28 25 28 26 25 26 24 21 21 23 20 16 22 30 29 38 43 46 46 44 41 41 40 44 47 49 48 46 46 48 49 49 48 46 43 40 39 37 35 34 34
20 23 24 26 27 25 24 23 23 15 17 17 23 12 23 31 34 34 39 43 46 46 43 41 41 41 44 47 48 48 46 46 48 48 46 45 42 39 38 36 37 37 37 37
24 21 26 27 27 25 26 22 27 24 34 26 14 17 31 32 33 35 39 42 45 44 42 40 42 43 44 46 48 49 46 46 46 45 44 42 41 38 37 38 39 38 39 35
24 22 24 26 29 29 27 28 24 24 20 14 8 10 17 26 28 33 38 42 44 42 41 41 42 44 45 46 48 50 47 45 43 42 41 39 37 37 38 39 38 36 33 31
24 24 28 27 24 19 28 26 23 23 25 21 14 14 21 23 27 32 36 41 42 42 41 42 42 45 46 47 47 48 45 43 40 39 39 40 38 36 37 35 31 30 31 30
28 27 26 25 26 27 26 24 25 26 20 25 29 15 22 26 28 31 34 39 40 41 41 42 43 45 46 45 44 44 42 39 38 38 40 37 36 34 32 29 28 31 31 32
32 25 24 25 27 28 26 24 24 24 27 24 30 20 24 26 27 29 31 35 38 40 40 42 43 44 43 42 42 41 39 38 37 37 36 33 31 30 28 27 30 30 31 31
38 26 24 25 21 25 28 25 24 25 28 23 19 15 16 22 23 24 29 31 36 39 40 42 42 42 41 40 40 38 37 38 35 32 27 27 28 28 28 30 31 31 31 31
35 30 26 24 25 25 23 22 22 24 24 26 20 12 7 10 15 21 25 29 32 38 41 40 40 40 39 38 37 35 36 34 32 26 24 25 26 30 31 31 31 31 32 31
35 32 32 30 27 27 25 24 22 20 21 16 16 16 18 22 21 23 24 29 31 37 39 39 39 38 38 36 34 35 33 30 26 25 24 23 26 28 30 30 31 31 30 31
37 35 32 27 26 24 31 28 22 20 21 22 23 22 24 24 23 25 27 31 32 35 38 39 38 38 37 35 33 30 29 26 26 24 22 22 27 27 28 27 28 29 30 31
37 37 36 32 30 29 17 19 18 22 21 19 20 21 20 22 27 29 31 32 34 36 38 39 38 37 34 32 28 28 26 27 26 22 20 22 25 26 27 27 28 29 30 31
33 35 33 36 23 21 18 15 18 19 18 18 23 19 21 29 33 32 33 34 35 38 39 39 38 34 31 27 25 29 26 23 21 19 20 22 24 25 26 27 28 29 30 31
30 34 35 31 33 31 26 24 28 27 22 22 23 26 27 31 31 30 35 36 37 39 38 37 34 30 27 26 26 27 25 21 20 19 22 23 25 26 26 28 29 29 29 28
38 39 37 35 36 32 25 24 30 24 29 29 30 28 30 28 37 39 37 38 39 38 36 33 28 26 25 28 31 27 20 16 19 23 24 25 25 25 27 28 28 28 28 29
34 38 37 38 35 31 25 29 27 36 31 33 33 33 38 38 40 39 38 39 37 35 30 26 25 25 30 28 23 17 13 18 22 25 25 24 25 25 26 28 28 28 28 30
32 33 36 32 32 33 28 29 33 34 34 35 36 37 37 38 38 38 38 36 32 26 24 25 28 31 28 25 23 21 21 23 24 24 24 25 27 27 27 26 26 27 27 28
31 33 34 30 25 27 30 33 35 37 39 39 39 39 39 39 39 38 35 29 26 26 30 33 32 28 24 21 22 24 25 26 24 25 26 27 27 27 27 26 25 27 28 29
33 33 30 31 28 30 35 39 41 41 41 41 41 40 41 40 38 34 28 27 32 34 31 27 24 25 26 22 23 24 24 26 25 26 26 27 28 29 28 26 27 28 29 30
32 32 36 36 38 39 38 41 41 41 40 40 37 35 34 34 30 32 35 35 33 28 29 31 28 25 22 22 23 23 23 24 26 26 27 29 30 29 27 26 27 29 28 29

GFSCGP_sfc_dewp_048.txt.gz
Dewpoint
31 27 23 22 22 18 18 17 18 16 17 15 14 20 19 27 32 37 36 36 36 36 42 48 50 51 53 60 60 61 60 60 60 60 57 55 54 51 51 50 51 52 50 50
27 29 27 23 22 19 15 19 18 11 11 13 13 13 22 24 29 35 38 38 39 42 45 50 52 54 56 59 60 60 60 59 59 60 56 55 52 50 50 51 51 51 50 47
27 35 36 28 24 16 16 24 27 23 19 13 17 13 22 26 27 30 36 40 41 43 47 50 52 55 60 60 60 60 59 59 59 57 54 53 52 51 49 50 50 49 48 46
34 33 33 28 17 17 26 30 24 26 29 14 26 21 28 25 28 31 33 38 41 43 47 50 53 57 58 59 59 59 59 58 55 53 51 50 47 46 48 48 48 48 47 44
34 32 30 25 20 24 29 32 29 20 18 22 25 25 29 31 28 30 37 39 41 44 47 51 55 57 57 59 60 59 57 52 51 52 51 51 51 49 50 49 50 49 49 47
31 37 33 29 24 22 31 29 24 23 26 24 29 27 26 28 32 33 36 40 43 45 50 50 55 56 57 59 58 54 50 48 51 51 52 52 51 49 48 47 48 47 47 43
27 21 25 27 21 24 23 23 27 32 32 26 15 19 20 33 31 36 36 42 45 49 49 49 50 50 51 51 52 52 49 48 50 52 52 52 50 47 45 43 43 41 41 41
26 24 24 24 21 34 31 24 33 26 29 26 27 16 25 30 30 34 38 41 46 47 47 45 46 46 48 50 50 50 48 48 50 52 51 50 49 46 43 41 42 42 41 42
23 25 33 27 21 31 29 24 26 23 38 35 17 10 30 30 31 33 37 41 45 46 45 42 43 45 46 49 51 52 49 48 50 50 50 47 45 42 41 41 42 42 42 36
32 33 36 30 26 25 23 24 26 26 25 21 12 14 27 26 28 31 37 42 45 46 45 42 42 45 46 48 49 52 51 47 48 47 47 44 43 41 43 41 41 39 36 35
32 34 29 26 23 16 26 25 20 18 28 29 27 18 23 23 27 30 33 41 45 45 44 43 42 44 46 48 49 51 50 46 45 45 44 43 40 42 39 40 36 33 33 34
27 27 29 24 23 24 24 24 23 35 25 31 35 25 24 27 29 31 32 39 43 45 43 42 43 45 45 48 48 50 50 45 43 43 42 41 42 41 38 36 32 33 33 35
30 29 29 22 23 27 25 21 20 25 33 29 35 25 24 25 25 27 31 35 40 43 42 42 43 45 46 47 47 47 46 44 40 38 40 41 41 36 34 32 32 34 34 34
41 29 25 26 20 24 26 25 21 25 36 31 28 19 17 22 25 24 30 33 36 40 40 41 42 45 46 46 45 44 43 41 39 39 38 36 35 33 32 33 34 35 35 35
34 27 22 19 20 20 24 24 21 20 24 28 27 19 17 16 23 26 27 29 29 30 36 39 43 44 44 44 44 42 40 40 39 37 34 34 33 33 34 35 35 35 36 34
35 32 33 31 28 25 25 23 22 21 21 18 21 20 20 23 26 25 25 23 25 29 34 40 41 42 42 41 41 38 38 38 38 34 32 32 30 31 34 34 35 35 34 33
36 38 37 34 28 26 29 28 23 21 21 22 23 25 24 22 22 26 28 27 31 31 33 39 40 41 42 40 38 36 36 35 31 33 32 29 29 31 33 31 31 32 33 34
38 40 42 37 32 28 23 19 16 19 17 16 16 20 19 27 29 28 30 32 33 36 35 40 41 41 40 38 36 36 31 31 33 32 27 25 28 30 31 31 31 32 33 33
36 40 39 37 29 25 22 17 19 20 20 23 22 22 22 28 30 34 32 33 34 37 39 41 41 40 36 34 31 29 30 30 28 24 23 25 28 28 29 29 31 32 33 32
29 40 41 36 35 30 29 24 24 23 27 24 24 27 27 27 36 36 36 35 34 37 39 39 36 34 33 29 30 29 27 26 25 23 25 27 28 28 28 30 31 32 31 30
39 41 37 36 37 35 27 26 28 27 34 33 31 31 35 32 40 40 39 38 38 38 38 34 32 30 30 33 31 29 28 24 23 26 28 28 28 27 29 30 31 31 31 30
37 39 36 41 35 32 25 26 29 38 37 35 35 37 40 41 41 40 38 39 38 32 29 28 28 30 30 27 27 22 25 27 28 27 28 27 27 27 26 31 31 30 29 29
35 36 39 37 37 37 30 33 36 37 37 38 39 37 38 39 37 38 38 37 31 26 27 31 31 31 31 29 27 22 25 24 28 28 27 27 28 28 28 30 30 29 27 29
32 34 39 36 27 28 32 37 40 39 40 39 40 41 40 40 41 39 36 27 27 32 32 32 30 29 27 25 29 30 28 29 25 27 27 28 29 29 29 28 28 28 30 29
35 34 31 33 29 34 38 42 41 41 42 41 39 37 38 39 37 31 32 33 33 31 29 28 29 31 30 31 28 24 24 27 26 27 28 29 30 31 31 30 29 29 30 31
34 33 40 41 40 40 39 38 39 38 37 36 34 34 34 34 34 34 34 32 29 30 32 34 33 30 25 22 22 24 25 25 27 27 28 31 32 32 30 29 29 30 30 31

GFSCGP_sfc_dewp_051.txt.gz
Dewpoint
33 31 27 25 26 23 21 21 19 18 21 21 29 27 30 33 35 35 34 32 33 35 38 40 46 54 56 59 60 60 59 58 58 58 57 55 53 50 49 48 48 49 49 47
30 33 33 33 32 26 22 20 23 24 20 18 16 19 25 29 35 36 33 34 33 39 44 47 49 56 58 58 60 59 58 58 58 60 57 54 51 49 48 48 49 49 47 46
30 33 33 32 32 31 30 28 26 26 28 22 21 19 23 25 29 37 37 36 37 43 47 49 51 55 58 60 59 59 58 58 58 60 55 53 50 49 48 48 48 47 46 44
33 33 31 31 31 31 29 29 30 26 24 21 25 21 27 28 26 29 37 40 42 43 48 49 52 58 59 59 60 60 59 58 58 58 53 50 46 45 47 48 48 46 45 43
29 31 33 31 30 30 29 32 28 30 29 25 26 24 28 27 28 30 31 38 42 44 48 50 54 58 59 59 59 59 58 58 58 51 50 48 47 47 48 49 47 46 45 43
30 33 33 33 33 29 30 30 32 34 32 25 26 26 27 26 26 33 35 39 41 44 48 52 56 57 57 58 58 58 58 56 49 49 49 48 47 48 47 47 47 47 46 44
30 27 31 36 31 32 31 29 27 27 27 26 27 29 30 32 31 31 31 36 43 49 52 55 56 56 56 57 58 58 53 48 48 49 50 49 46 45 44 43 42 39 39 41
26 25 31 34 29 30 32 32 28 23 27 27 29 27 30 32 33 36 38 40 46 49 49 53 55 55 56 53 50 49 47 48 49 49 49 47 44 43 41 40 41 41 41 41
28 31 36 33 33 30 34 32 34 29 33 27 24 24 32 32 33 39 40 43 46 47 45 47 47 49 48 48 48 47 47 48 50 50 47 44 40 39 39 40 41 42 38 34
36 32 37 37 35 32 30 30 28 28 17 17 20 21 29 31 33 35 39 44 45 45 44 44 44 46 47 48 49 49 48 49 49 47 43 42 40 39 40 41 40 37 35 33
34 31 34 35 34 29 27 26 26 25 30 23 23 21 26 29 31 31 38 44 45 45 43 42 42 45 47 48 49 48 49 47 45 43 43 40 39 41 40 38 37 33 33 33
33 34 34 32 34 32 25 28 30 26 22 28 27 24 26 28 31 31 31 42 45 45 44 42 42 44 46 47 48 49 48 45 43 40 41 44 42 40 40 39 32 34 33 34
35 29 24 27 27 31 27 25 24 27 32 26 23 24 25 25 25 27 29 39 44 45 44 42 42 43 46 47 49 49 44 40 41 41 42 42 40 40 36 32 33 34 33 33
38 32 28 25 23 26 26 26 26 26 27 26 26 26 25 24 25 25 26 29 40 44 43 42 42 44 47 48 49 47 41 41 40 40 42 40 40 36 33 34 34 34 34 33
34 28 28 25 25 28 26 27 26 25 27 26 27 25 25 24 24 25 30 31 29 34 40 41 43 47 48 48 45 41 40 40 39 38 35 32 33 33 34 34 34 34 33 33
35 31 30 31 32 29 27 26 26 25 24 22 24 23 25 25 25 24 24 24 28 29 36 42 46 46 45 44 39 39 39 38 39 33 33 32 33 34 34 33 32 32 33 32
36 34 31 29 27 26 23 26 25 25 25 25 23 25 28 28 28 28 29 31 30 32 36 39 42 42 42 39 37 37 37 34 34 33 32 31 33 32 31 30 30 31 31 31
37 36 32 28 26 16 27 24 19 20 22 23 23 28 29 29 32 32 33 32 34 36 37 40 40 38 37 36 36 33 32 33 33 32 27 29 31 30 30 31 31 30 31 31
41 37 31 25 25 27 25 23 24 23 24 26 25 26 29 30 35 36 35 34 34 38 40 38 36 33 30 29 30 31 30 28 25 25 26 29 30 30 31 31 30 30 31 31
36 38 30 29 24 17 29 25 27 26 24 31 31 33 35 31 33 36 38 38 38 38 34 31 28 30 30 29 28 28 28 28 26 27 30 32 33 32 31 30 30 31 31 29
30 30 27 25 24 30 34 29 32 20 26 34 34 35 37 38 39 39 39 32 30 31 30 31 30 29 28 29 27 26 27 28 30 32 33 32 32 30 29 29 30 30 30 29
31 31 27 31 31 26 31 29 27 36 36 37 36 38 38 38 40 40 34 29 30 30 29 30 29 28 26 26 27 28 27 29 31 30 30 29 29 28 27 30 30 30 29 28
32 37 34 34 33 38 37 38 40 40 39 39 40 41 41 40 39 35 28 31 31 31 31 32 31 29 28 26 27 28 27 27 29 29 28 28 29 28 28 29 28 28 27 26
35 36 35 31 34 37 41 42 41 41 41 40 38 38 40 40 37 30 32 32 31 31 29 29 28 28 29 30 30 30 31 30 28 27 27 28 28 29 29 29 29 28 26 25
36 34 33 32 40 40 40 41 42 40 39 35 36 35 35 34 34 32 31 30 29 29 30 32 32 32 31 32 32 30 25 27 26 27 28 28 29 29 29 30 30 29 28 27
36 35 31 33 40 39 37 39 39 37 36 36 35 34 34 34 33 31 29 29 31 33 34 34 33 33 28 23 23 24 25 25 26 27 27 28 28 28 29 29 29 30 30 30

GFSCGP_sfc_dewp_054.txt.gz
Dewpoint
35 31 29 28 31 31 25 24 21 21 26 33 32 29 30 37 40 36 36 44 43 45 45 47 49 51 52 57 58 57 57 56 56 56 56 55 52 51 49 48 49 49 49 49
29 30 33 30 33 33 30 27 23 25 24 31 27 28 31 35 38 35 33 35 36 38 42 48 50 51 53 58 57 57 56 56 55 57 56 54 52 49 48 48 49 49 47 45
27 30 34 32 32 31 30 30 27 25 25 22 21 23 23 29 37 37 37 33 34 37 41 48 52 53 56 58 58 57 57 56 56 58 56 52 49 48 48 48 48 46 45 45
31 34 30 31 31 31 28 31 30 28 21 15 24 20 28 24 31 36 36 36 35 40 42 50 53 56 57 58 59 58 58 57 57 59 56 50 47 46 47 47 48 46 45 44
26 32 31 29 28 31 30 33 32 29 27 25 26 21 23 28 27 30 36 37 36 43 43 51 55 57 58 59 59 59 58 58 58 58 55 50 47 47 47 48 47 46 44 43
27 33 31 29 34 32 31 30 33 33 31 24 26 23 22 25 26 27 33 37 39 45 46 50 57 58 59 59 59 59 58 58 58 57 52 50 47 47 47 48 46 46 46 43
29 28 31 34 28 30 30 28 24 23 25 23 28 26 24 30 30 30 31 39 41 47 49 54 57 58 58 58 58 58 58 57 53 51 50 49 47 47 47 47 46 44 41 41
25 23 30 33 30 30 32 28 25 18 24 24 28 25 27 32 33 33 33 37 46 48 51 54 56 57 57 57 57 58 57 52 49 49 48 47 45 45 44 43 42 42 42 39
27 29 37 36 34 30 32 29 31 28 30 27 25 22 30 33 36 38 39 41 47 50 54 55 55 56 56 56 56 55 51 48 49 49 46 44 42 41 42 43 41 40 39 35
31 28 34 37 35 33 27 31 29 29 17 17 19 21 28 31 34 39 39 41 47 47 49 52 53 54 53 52 49 48 49 48 49 46 43 41 41 41 43 44 43 39 39 36
33 30 29 36 32 27 27 25 27 27 27 21 21 20 24 32 33 38 40 44 46 46 46 48 50 51 50 48 48 47 47 48 48 44 41 41 42 42 42 42 39 36 37 35
33 34 30 28 32 36 33 29 30 25 19 26 25 21 27 31 33 34 36 44 46 45 44 45 47 48 47 47 47 48 47 48 44 40 41 43 42 44 43 40 38 38 35 36
33 30 28 27 29 31 31 27 27 32 29 24 22 23 26 26 30 31 30 38 45 46 44 43 44 46 47 47 47 48 44 40 40 42 43 43 41 43 42 40 38 38 34 33
37 32 27 26 24 25 26 27 26 26 26 24 25 24 25 25 25 26 26 32 44 45 44 42 42 44 45 47 46 43 43 43 44 43 42 42 43 43 38 36 35 34 34 32
33 27 28 27 27 28 27 26 26 25 27 24 25 26 25 25 25 26 27 29 38 43 43 44 44 47 48 48 45 43 44 43 44 41 37 40 36 35 36 36 34 34 33 32
34 27 27 26 30 27 26 25 25 25 24 24 25 25 26 25 25 27 25 29 31 36 39 42 48 48 48 45 43 43 43 41 40 33 31 33 35 35 35 34 33 32 33 33
34 33 29 26 26 27 24 25 25 25 26 25 21 25 29 29 29 30 33 33 34 37 43 45 46 47 45 43 43 41 38 34 32 32 33 35 36 34 33 31 31 31 31 31
35 34 29 26 25 18 28 28 27 25 25 26 27 29 32 32 34 34 33 35 37 38 40 39 38 37 37 37 33 33 33 34 31 30 31 31 32 32 33 34 32 31 31 31
40 34 30 24 25 27 26 22 19 23 25 29 27 30 34 35 36 36 38 38 38 36 32 30 30 30 31 31 31 28 26 28 29 31 31 32 35 36 34 31 31 31 30 31
36 36 31 28 22 18 27 26 26 27 24 31 35 35 32 33 31 36 35 33 31 30 30 29 28 28 28 28 28 28 27 28 29 30 31 37 36 32 31 31 31 30 30 30
30 31 26 23 22 25 30 30 29 17 21 34 36 37 36 36 37 34 31 31 30 28 26 26 25 25 26 28 27 27 28 28 31 36 37 33 32 31 31 29 29 29 29 29
28 28 25 28 24 22 35 31 24 30 37 37 38 38 38 40 35 32 31 29 29 28 27 26 25 26 27 28 27 27 27 29 31 30 29 29 29 28 27 29 28 29 29 28
30 31 30 31 30 36 39 37 39 39 38 39 40 40 41 34 31 31 31 31 30 30 29 28 26 26 29 30 29 28 30 28 29 28 28 27 28 28 27 28 28 27 27 25
35 39 35 33 37 40 40 41 42 40 36 36 37 39 38 30 32 32 31 30 29 29 29 29 29 30 30 31 31 31 31 31 28 27 26 27 27 27 28 28 29 28 27 26
35 35 34 38 39 39 39 40 37 36 36 36 35 35 33 33 32 30 29 28 30 32 32 32 32 31 31 31 29 25 24 26 25 26 27 27 28 28 28 29 29 29 29 28
35 33 32 33 39 37 37 38 38 36 36 35 34 33 33 32 30 29 31 32 33 33 33 32 30 25 24 24 26 27 29 29 27 27 27 27 27 27 27 28 28 31 30 30

GFSCGP_sfc_dewp_057.txt.gz
Dewpoint
34 30 28 28 27 31 30 27 24 23 23 31 31 31 30 37 43 46 52 51 53 55 55 55 56 52 53 56 57 56 56 55 55 55 53 52 51 50 49 49 49 49 49 47
29 30 31 31 33 31 31 30 28 26 26 31 30 30 30 37 41 44 48 50 47 50 51 52 51 51 53 56 57 56 56 55 55 54 55 54 51 50 48 48 49 49 49 46
27 28 34 32 31 29 28 29 29 27 26 29 24 24 25 33 39 39 43 49 44 45 46 48 48 50 53 56 56 56 56 55 54 56 54 51 49 48 47 47 47 48 46 44
29 32 30 31 28 29 26 30 31 30 22 16 22 17 26 29 36 37 37 41 41 42 43 46 48 50 52 56 57 57 56 56 56 57 54 51 48 46 47 47 47 46 46 44
27 31 30 28 27 29 27 33 31 31 27 24 25 20 20 26 31 35 36 35 36 38 41 46 48 50 53 56 57 57 57 56 57 57 56 52 48 47 47 47 47 46 44 44
25 33 31 28 31 32 32 31 30 31 29 23 25 22 21 24 26 31 36 36 34 36 40 46 50 52 55 58 58 57 57 57 57 58 55 52 49 47 47 47 46 46 44 42
29 28 31 35 29 30 29 26 22 22 23 22 27 25 25 26 28 28 32 37 37 40 44 50 54 55 57 57 58 58 57 57 57 57 55 52 49 47 47 47 46 44 41 41
23 21 27 31 29 28 32 26 24 16 22 22 28 25 25 31 35 33 33 37 39 43 47 54 55 56 57 58 58 58 58 57 57 56 54 51 49 48 47 47 45 42 41 38
26 24 35 37 33 30 31 29 29 28 29 27 25 23 29 31 34 37 35 41 43 45 49 54 56 57 57 58 58 58 57 57 53 52 50 47 48 45 43 43 42 40 41 43
26 23 33 35 35 34 29 31 26 28 18 18 18 21 24 29 30 36 38 39 46 49 51 54 55 56 57 57 57 57 56 54 50 49 47 44 43 42 42 42 41 42 42 42
31 26 27 34 30 26 28 26 26 28 25 21 20 22 23 30 31 34 35 40 46 49 52 54 55 56 56 56 54 55 52 50 48 45 42 41 42 42 42 40 42 43 42 40
31 29 25 26 31 33 28 27 28 25 21 26 25 20 24 29 33 35 38 40 46 48 50 52 54 54 53 52 51 51 51 49 47 41 41 42 42 43 44 43 41 42 42 42
33 29 24 23 27 33 31 30 31 30 28 25 22 22 25 26 29 33 34 37 45 46 46 49 50 52 52 51 50 47 45 41 42 42 42 44 46 45 42 40 41 40 40 39
35 31 26 24 24 28 28 27 26 28 26 23 25 23 24 25 26 26 31 31 38 46 45 44 46 49 49 49 48 44 42 41 42 43 44 44 44 44 43 41 39 38 36 34
33 28 27 27 26 25 24 25 27 26 26 24 24 25 26 26 25 26 27 28 38 44 45 43 43 46 48 47 46 44 44 45 46 45 45 46 44 43 38 35 35 35 35 33
33 26 25 29 29 28 26 26 25 26 25 27 26 24 27 26 30 29 29 30 35 38 41 44 46 47 48 45 44 45 46 46 46 44 40 38 37 36 37 37 35 34 33 33
31 31 27 23 26 26 24 26 25 25 25 24 22 24 28 29 31 32 33 35 37 41 45 46 47 47 45 44 44 44 41 36 35 37 36 37 37 35 34 32 34 34 34 33
33 31 27 24 25 17 25 29 27 26 26 26 27 29 30 32 35 37 37 37 39 38 38 38 39 39 38 35 33 33 33 34 34 33 32 32 34 34 37 39 39 35 32 30
37 32 28 24 25 25 27 24 24 22 23 29 31 32 34 36 35 36 36 33 31 31 30 30 31 32 32 31 31 29 31 31 29 30 33 37 39 39 39 36 32 31 30 29
36 35 30 25 22 21 29 29 25 26 22 29 31 34 35 33 27 34 32 31 30 29 28 28 28 28 27 26 27 27 27 28 30 32 37 39 38 36 32 31 31 30 29 29
30 30 28 23 22 27 29 29 26 19 22 32 35 34 33 31 32 33 31 28 27 26 26 27 27 27 27 27 27 27 28 29 34 37 36 34 32 31 30 28 28 28 28 28
31 30 25 26 20 23 32 30 22 27 36 36 37 38 38 33 32 31 29 28 26 25 25 26 26 27 29 29 28 28 29 31 31 30 29 28 28 27 27 28 27 27 28 27
28 31 31 30 30 34 37 31 36 37 37 38 38 39 35 32 31 30 29 28 27 27 26 26 29 30 30 30 29 29 29 28 28 28 26 26 27 27 27 27 27 27 27 26
35 37 33 33 37 39 40 40 39 39 38 39 40 38 33 32 31 30 29 29 29 28 28 30 29 30 31 32 30 29 28 29 28 27 26 27 27 27 27 28 28 27 26 26
36 36 36 36 38 39 40 37 37 36 36 35 34 33 33 32 30 29 28 29 31 32 31 31 30 28 25 26 27 29 30 29 28 28 28 28 28 28 28 28 28 28 28 29
36 35 34 33 38 37 38 37 37 35 35 34 33 32 32 31 29 30 31 32 31 32 29 26 26 26 26 28 30 30 31 30 29 27 27 28 28 27 27 27 27 29 30 30

GFSCGP_sfc_dewp_060.txt.gz
Dewpoint
33 29 27 27 26 26 28 27 26 26 28 27 26 31 32 41 50 52 52 53 54 53 53 54 57 56 55 55 57 57 56 55 56 55 53 52 52 51 51 51 50 49 48 45
29 29 30 29 33 30 30 29 27 28 27 27 28 28 31 38 44 50 52 52 53 55 55 54 55 55 54 55 57 56 56 55 56 56 53 53 51 50 49 49 49 49 47 44
27 27 33 31 31 29 28 27 27 27 28 29 27 23 28 31 40 43 49 52 52 53 54 54 54 53 53 55 56 56 56 56 56 55 54 50 49 49 47 47 48 48 48 44
27 30 30 30 29 29 25 29 30 30 25 19 22 15 23 28 35 39 43 49 51 49 51 52 52 51 51 54 56 56 56 56 55 55 53 50 50 48 47 48 47 47 46 44
24 30 30 29 28 29 27 32 31 31 28 24 24 20 20 29 33 37 39 42 48 47 47 48 50 50 51 54 55 56 56 56 55 55 54 52 50 50 49 47 47 46 45 44
25 32 30 28 30 30 32 32 29 29 27 23 25 22 21 25 29 33 38 37 41 44 43 44 47 48 51 55 55 56 56 56 56 56 55 53 53 50 48 47 47 45 43 42
28 28 30 32 29 30 29 25 21 21 23 21 26 25 25 27 27 30 35 38 37 39 39 41 46 49 53 55 56 56 56 56 56 56 56 55 53 51 48 46 46 44 41 41
23 19 26 30 28 26 30 25 23 15 20 21 26 23 23 29 33 35 32 34 38 36 38 41 46 50 54 55 56 57 57 57 57 57 57 56 54 49 47 47 47 43 41 39
24 21 33 35 33 29 30 26 27 26 28 26 24 24 22 30 32 37 35 38 38 37 40 43 48 53 55 56 56 57 57 57 57 57 56 54 52 50 47 45 43 41 40 42
25 20 31 34 34 34 29 31 25 26 20 18 18 19 20 23 27 33 36 36 42 43 46 49 52 55 56 56 57 58 57 57 57 56 54 53 50 47 45 44 42 40 43 43
28 22 24 32 30 27 29 28 26 27 24 20 19 20 24 23 29 31 33 38 39 47 48 51 53 55 56 56 57 57 57 57 53 52 50 47 44 43 43 42 42 43 43 42
30 26 21 25 31 30 28 29 27 25 21 25 24 21 23 23 27 33 33 38 41 47 50 51 53 54 55 55 55 55 55 54 51 44 43 43 42 42 43 43 44 44 42 44
31 25 20 20 25 32 31 30 30 29 27 24 22 22 24 26 26 29 33 34 41 46 48 51 52 53 54 55 53 52 51 49 46 44 43 44 44 43 43 44 43 43 43 42
35 30 23 19 19 26 29 28 30 28 26 24 24 23 23 24 25 26 28 32 33 44 47 47 49 51 51 51 49 47 45 47 46 45 46 45 45 44 43 43 42 41 40 39
31 25 27 26 25 24 24 24 26 25 25 23 24 24 25 26 26 25 26 27 30 35 45 45 45 48 48 48 46 45 44 45 46 46 45 45 46 45 43 39 40 41 40 37
32 26 26 28 28 28 28 26 27 26 26 25 25 24 27 27 30 30 30 32 38 41 42 45 43 46 48 46 46 45 45 45 45 44 44 44 43 40 39 39 39 37 34 34
30 30 26 23 26 26 24 26 26 26 26 26 24 26 27 30 31 32 35 38 41 42 44 45 46 45 45 44 45 44 43 42 41 39 39 39 38 36 36 35 36 38 39 38
31 29 27 24 24 17 25 29 28 27 26 25 25 27 29 32 36 36 35 38 37 36 37 38 39 37 36 35 35 35 36 36 36 34 33 33 34 37 39 39 40 40 37 33
35 31 28 24 24 23 24 25 25 24 22 27 27 31 34 36 35 35 31 31 31 30 30 30 31 32 32 31 32 31 31 31 32 36 38 39 39 38 38 39 38 33 30 30
34 33 29 25 21 19 26 28 25 23 21 29 32 34 35 33 26 31 31 30 29 28 28 28 27 27 27 28 29 28 29 32 35 38 38 39 39 40 35 32 31 30 28 28
30 29 26 23 22 27 31 28 26 19 24 30 33 34 35 30 30 31 28 27 26 27 27 27 27 26 27 27 27 28 31 33 37 37 37 34 32 30 29 28 27 27 27 27
32 31 27 25 22 24 30 28 23 28 34 34 34 35 35 33 31 29 27 26 26 25 26 27 28 29 29 29 29 29 30 30 30 29 28 28 28 27 27 27 27 27 27 26
31 33 32 31 31 34 33 30 33 34 35 36 37 38 34 32 30 29 26 26 26 26 29 29 29 29 30 29 30 30 30 29 29 28 27 27 27 27 27 27 27 27 26 26
34 35 32 32 34 37 39 39 39 39 38 39 40 34 33 31 30 28 27 27 26 29 29 29 30 27 26 28 29 30 29 28 28 28 28 28 27 28 28 27 28 27 25 25
37 37 35 34 38 39 39 38 37 37 37 36 34 33 32 31 29 28 28 29 30 30 30 27 25 26 29 29 29 30 29 27 27 26 26 26 26 26 26 26 26 26 26 27
37 36 34 33 36 36 36 37 37 36 35 35 33 32 32 30 29 29 31 31 30 26 26 26 26 28 28 25 24 25 26 24 23 22 24 25 24 23 22 22 21 24 25 26

GFSCGP_sfc_dewp_063.txt.gz
Dewpoint
34 30 29 27 27 26 25 25 25 25 29 29 30 30 34 51 51 52 52 53 53 53 53 54 55 56 55 58 59 60 60 60 59 58 58 58 59 59 58 58 56 54 51 51
31 30 31 29 29 29 29 27 26 27 28 28 28 27 31 47 49 51 51 52 53 53 53 54 55 57 56 56 58 59 59 58 58 58 58 58 58 56 56 55 55 53 51 49
30 28 32 31 31 30 29 28 27 25 29 29 26 22 30 34 44 48 52 52 52 53 53 54 54 56 56 56 57 58 58 58 58 58 57 54 53 53 53 54 52 50 49 47
28 29 30 31 30 30 28 29 28 28 28 22 23 16 22 28 34 42 46 51 52 53 54 54 54 55 56 56 58 58 58 58 58 58 57 56 55 53 54 53 50 49 49 46
25 30 30 29 30 30 28 31 30 30 28 26 24 21 23 28 27 32 39 45 51 52 53 53 54 55 56 57 58 59 58 58 58 58 58 57 56 56 54 52 50 49 49 47
25 32 31 30 30 30 32 32 28 29 28 25 25 23 22 23 27 31 34 40 45 51 51 52 53 54 54 57 58 59 58 57 57 57 57 56 55 53 52 52 49 48 48 46
27 28 30 32 29 30 29 27 24 25 25 23 26 25 26 27 28 30 32 38 43 46 50 49 49 51 52 54 57 58 57 57 57 57 57 56 55 54 53 52 50 48 46 45
23 21 27 31 28 28 29 28 29 16 20 21 25 24 23 29 31 34 37 35 38 42 46 47 47 49 52 54 55 57 57 57 57 57 57 57 55 55 53 50 50 49 46 44
26 22 30 34 32 30 31 27 28 28 29 28 24 24 22 27 28 34 37 37 38 40 41 43 45 49 51 53 55 57 57 56 57 57 58 58 57 56 53 51 51 49 47 44
30 23 31 34 34 33 30 31 28 29 22 19 19 20 19 25 25 32 32 37 40 42 41 41 43 48 51 53 54 57 57 56 57 57 58 58 57 56 54 52 50 48 45 43
29 26 25 32 31 29 30 30 28 27 26 22 21 20 29 26 25 32 33 37 40 43 45 45 47 50 53 55 55 57 57 57 57 58 58 57 57 55 52 51 49 46 45 44
32 31 27 26 30 30 30 31 30 30 24 27 26 23 27 29 28 30 34 36 41 43 46 48 51 54 55 56 56 57 57 57 58 58 57 56 53 50 49 47 45 46 44 45
33 28 23 21 26 32 30 29 30 30 30 26 30 25 26 27 28 30 30 33 37 44 47 50 52 53 55 56 57 57 56 57 55 52 50 49 47 46 46 46 46 46 44 44
35 30 26 20 21 28 31 31 30 30 29 28 27 26 27 27 27 29 30 31 33 36 45 48 51 53 54 55 55 55 54 52 48 48 48 47 46 46 46 46 45 45 44 41
35 28 28 25 23 27 28 28 30 28 29 28 27 25 26 28 28 28 28 29 31 34 36 46 48 52 52 52 50 49 49 49 48 47 46 46 46 46 45 44 43 43 43 43
34 30 30 27 29 26 25 25 28 29 27 26 26 26 29 29 29 29 33 35 41 44 45 45 45 49 50 48 47 46 47 47 47 46 46 45 44 43 42 43 42 41 38 37
33 33 30 26 27 28 28 29 27 28 28 29 27 30 29 29 30 33 37 41 42 42 44 44 45 46 47 46 46 46 45 45 44 44 43 41 41 40 39 37 37 39 41 41
34 32 30 29 27 26 29 29 29 29 29 28 26 27 28 30 35 35 36 40 39 39 41 41 41 41 41 41 41 42 40 40 39 37 36 36 37 39 40 41 41 42 41 40
35 33 30 31 27 26 25 27 28 28 24 29 28 28 32 36 35 33 32 33 34 34 34 35 36 36 36 37 38 36 35 34 35 37 38 39 40 39 40 40 40 38 34 33
33 34 34 28 27 25 30 27 29 27 24 28 30 33 36 35 34 33 31 31 31 31 32 31 32 33 33 33 34 35 35 36 37 38 38 39 41 40 37 34 32 32 31 29
33 33 31 28 32 30 31 29 30 26 28 31 32 34 37 32 34 34 30 29 29 29 29 29 30 29 29 32 34 35 36 36 37 37 32 31 29 29 29 30 29 29 29 30
33 32 32 29 31 27 32 26 29 34 33 33 35 37 38 34 32 30 29 28 28 27 27 28 28 28 30 32 31 29 28 28 28 28 28 28 29 28 28 30 30 30 29 30
34 35 34 33 34 38 33 35 34 33 35 37 37 37 35 32 30 28 27 27 27 28 27 28 28 29 29 28 29 28 28 27 28 29 29 28 26 25 24 23 22 21 21 23
36 38 35 35 35 35 38 39 39 38 37 38 39 36 34 32 29 28 27 27 28 28 29 27 27 27 28 29 28 28 29 28 26 24 23 22 21 19 19 18 18 19 22 23
37 38 36 36 36 39 40 41 39 38 39 37 36 35 34 31 28 27 26 28 28 29 26 26 28 28 27 26 24 23 22 22 21 21 19 19 19 19 17 17 19 21 23 24
39 37 36 36 38 37 37 40 40 38 38 36 34 33 32 30 29 28 29 30 28 26 26 28 27 24 22 22 21 20 21 19 18 16 17 19 19 19 17 17 18 21 22 23

GFSCGP_sfc_dewp_066.txt.gz
Dewpoint
33 28 26 21 24 24 21 21 20 22 26 27 26 26 26 41 47 46 49 49 50 52 50 53 54 55 53 55 55 57 58 60 61 60 56 54 55 58 60 62 62 61 59 58
31 28 27 28 27 27 25 23 23 24 26 28 26 24 28 37 45 44 46 48 50 50 51 50 52 54 56 56 57 57 58 60 61 58 56 54 55 56 59 61 61 60 58 56
26 27 30 29 29 27 26 25 24 23 25 28 27 23 25 30 41 45 45 46 48 49 50 52 51 53 55 55 57 57 58 59 60 58 55 55 57 58 58 60 60 59 56 54
26 27 28 28 25 26 24 26 26 25 26 20 26 14 19 25 31 39 44 47 47 49 50 50 52 53 55 55 55 57 58 59 60 59 56 55 54 54 56 59 58 55 54 52
25 26 27 26 26 28 25 30 28 28 28 26 24 18 19 25 23 27 36 43 47 48 50 49 50 52 53 55 56 56 57 58 60 60 59 57 57 56 58 58 57 55 53 51
23 30 29 27 29 29 32 31 30 30 28 23 23 22 16 17 21 25 28 32 41 48 49 49 50 51 52 57 58 58 57 57 59 61 61 60 59 59 58 57 56 54 53 48
24 24 28 30 28 31 30 29 25 26 24 22 25 21 19 21 26 28 30 35 37 40 48 50 49 51 51 54 58 58 58 56 59 60 60 61 60 60 58 57 55 53 52 50
21 21 25 29 27 25 29 28 26 17 19 19 24 17 17 25 26 30 35 37 37 40 42 47 50 51 52 53 56 58 57 57 58 59 60 60 60 59 59 56 55 53 51 52
22 18 24 29 29 28 30 27 28 27 31 28 19 19 21 22 25 30 26 33 37 37 41 44 47 51 52 54 55 57 56 56 57 59 60 59 59 58 57 57 55 53 53 51
25 21 24 31 32 32 30 29 27 29 21 18 17 19 16 19 20 24 24 28 36 42 40 40 42 47 50 52 54 57 56 55 55 58 59 59 59 59 58 57 54 53 54 51
23 23 29 32 30 26 30 28 28 26 26 22 19 18 22 20 21 25 26 30 33 38 42 43 42 43 47 50 53 54 55 54 55 56 58 59 58 58 58 57 55 54 53 49
27 26 24 23 28 30 28 27 29 26 23 28 29 22 23 25 28 28 29 34 34 39 42 45 46 47 48 50 51 52 54 54 55 56 57 58 58 57 54 53 51 50 48 46
28 26 23 22 26 31 27 27 27 28 30 25 30 23 26 27 29 30 30 29 34 38 41 46 49 50 51 52 53 53 55 56 57 57 57 53 51 50 49 47 47 46 45 45
34 25 24 22 18 19 23 25 27 26 28 24 23 21 21 25 25 26 29 31 31 35 37 43 47 50 53 54 56 57 56 56 53 53 50 49 48 48 47 47 47 46 46 44
32 24 24 21 18 17 19 17 20 23 23 22 24 20 21 24 26 28 29 30 30 31 32 39 47 51 53 55 55 55 53 50 50 49 48 48 48 47 46 46 44 44 43 43
32 26 27 25 22 22 20 20 21 24 23 24 26 23 24 26 29 29 30 30 36 41 42 42 46 51 52 52 52 52 52 50 49 48 47 46 46 45 45 43 43 43 41 39
33 29 29 24 27 26 30 28 23 26 28 28 25 25 25 28 28 30 34 37 40 43 45 46 48 49 49 49 50 49 49 49 48 46 45 45 45 43 41 39 37 38 39 40
35 32 32 29 32 31 24 29 26 26 26 26 27 26 27 27 31 35 38 40 41 43 43 44 46 46 47 47 46 47 45 45 45 43 43 42 40 38 39 41 41 42 41 41
37 35 34 36 27 24 25 26 28 28 26 27 28 26 24 30 34 35 37 40 41 42 42 42 43 44 44 44 43 42 40 40 40 39 39 39 40 40 41 40 40 41 38 36
35 36 36 32 29 32 30 26 29 29 26 26 27 27 28 34 33 29 36 37 37 38 39 39 40 41 42 41 41 39 38 37 37 37 37 39 39 40 39 36 33 33 32 28
36 36 37 33 35 30 30 29 30 26 30 29 28 30 34 34 33 37 36 36 36 36 37 37 38 38 39 39 39 37 37 36 37 37 35 32 31 30 30 29 29 30 30 31
34 35 37 34 37 33 32 28 28 33 37 34 35 35 38 38 37 35 34 34 34 34 34 34 35 36 37 37 37 35 34 33 32 30 29 29 29 26 28 30 30 28 27 25
33 35 35 34 33 40 35 33 34 36 34 36 36 36 39 37 34 34 33 33 33 32 32 33 33 33 33 32 31 30 30 30 29 29 28 27 25 23 20 21 19 18 18 21
34 37 37 36 32 35 38 35 38 35 35 35 37 38 39 35 34 33 32 31 31 30 30 30 30 29 30 31 30 29 28 27 25 25 24 22 18 17 16 13 15 16 22 23
35 37 34 36 35 37 38 40 39 38 39 39 39 38 37 35 33 32 31 30 30 30 29 29 29 29 27 26 25 24 24 24 21 19 17 17 18 16 16 16 19 20 23 23
37 36 39 38 40 39 35 40 41 41 39 39 38 37 36 34 32 32 31 30 30 28 29 29 28 26 23 21 20 20 18 17 16 14 15 19 19 19 16 15 18 22 21 20

GFSCGP_sfc_dewp_069.txt.gz
Dewpoint
30 27 25 23 24 21 20 19 19 21 23 23 25 26 25 36 40 43 45 45 47 47 48 51 51 51 49 52 51 53 56 59 60 58 55 52 50 51 53 58 61 62 61 61
27 27 26 24 20 20 21 21 22 23 23 24 23 21 21 33 40 41 43 46 46 48 48 51 52 51 52 53 54 53 53 56 57 55 53 50 50 50 52 60 62 62 61 60
25 26 25 26 24 24 24 24 25 22 24 23 21 19 21 28 37 38 39 42 45 48 45 48 50 53 52 52 54 53 54 54 56 55 53 52 52 52 53 58 60 60 60 59
24 24 26 26 25 25 23 24 24 24 23 26 26 19 23 21 28 37 37 41 43 46 46 47 48 50 53 54 55 55 55 54 56 58 54 54 50 50 52 56 59 58 59 58
21 22 26 25 25 24 24 27 25 26 26 24 20 14 20 17 18 26 35 39 41 44 45 46 48 48 50 53 55 56 55 55 55 59 57 54 54 53 54 57 59 60 58 57
21 24 24 24 25 27 26 26 28 28 27 24 22 19 20 20 17 21 26 34 39 41 43 43 45 48 49 56 57 55 55 55 56 58 59 58 57 56 53 59 58 58 57 56
22 23 24 27 25 28 28 28 26 26 25 23 22 19 18 19 22 23 25 30 33 39 43 45 43 44 47 51 55 56 55 54 56 58 59 60 59 58 58 59 57 58 56 55
20 19 22 26 26 26 26 26 27 23 24 22 20 13 16 19 19 21 25 30 35 37 38 44 45 46 46 49 53 56 55 55 54 57 60 61 60 59 61 60 59 58 56 56
20 18 20 23 25 25 26 26 26 26 26 27 20 18 19 17 18 23 21 25 31 36 38 38 44 47 49 50 53 58 56 55 55 57 60 60 61 60 60 61 59 58 57 55
21 21 19 22 25 26 27 28 26 26 22 23 17 17 16 18 20 20 21 23 29 38 37 40 40 45 48 50 52 57 56 54 54 57 59 59 60 60 60 59 58 57 56 54
22 24 23 26 26 23 25 28 27 25 25 25 21 17 23 19 19 20 23 24 26 30 39 39 40 43 47 50 52 55 56 55 53 55 59 60 59 59 59 59 58 57 56 55
25 25 23 24 23 22 25 26 26 27 23 26 27 23 23 23 23 25 24 26 27 30 34 40 42 42 44 47 50 53 55 55 54 54 56 59 59 59 59 58 54 52 47 47
26 24 24 21 23 27 25 26 26 28 27 25 33 25 22 22 24 25 25 25 27 31 32 38 43 45 46 48 50 51 53 54 53 54 58 57 55 53 51 49 47 46 46 46
34 25 24 23 21 23 24 21 23 26 32 27 24 21 19 20 23 24 26 27 26 29 32 35 41 45 49 51 51 52 56 57 57 55 54 52 50 49 48 47 47 47 47 46
30 25 23 20 19 18 18 19 20 21 23 25 23 20 17 20 21 23 27 28 28 27 28 33 39 45 50 53 55 56 53 53 52 50 50 49 48 48 48 46 46 45 45 44
30 27 26 22 21 19 17 16 17 16 16 16 17 18 20 23 22 23 26 28 28 34 36 34 39 48 51 54 55 52 51 50 50 49 49 48 47 46 46 45 45 44 43 43
31 32 27 26 21 22 27 21 19 19 19 21 22 23 23 21 22 24 25 30 33 40 42 42 46 51 52 52 52 51 50 49 48 47 47 47 46 45 43 42 41 40 40 41
32 31 31 33 34 29 25 25 22 22 21 22 23 22 21 22 24 30 33 33 39 42 44 47 48 49 50 51 50 50 48 47 46 45 45 44 43 40 39 39 39 40 41 41
34 35 36 34 31 25 21 25 26 24 22 23 22 22 22 24 30 33 34 37 41 43 44 46 47 47 47 47 47 46 46 45 44 43 42 41 41 39 40 40 41 41 41 41
33 37 38 34 29 28 26 24 29 26 27 26 25 26 26 28 32 24 37 41 42 41 42 43 44 44 44 44 43 43 42 42 41 40 40 39 39 39 40 41 40 36 34 31
36 37 38 35 33 28 24 25 32 28 30 27 26 27 27 28 30 38 39 40 39 39 40 42 42 42 42 42 42 41 40 39 39 39 39 38 37 36 34 33 31 29 29 30
35 35 38 37 37 32 32 30 29 35 35 33 32 31 33 37 40 39 39 38 37 38 38 39 40 40 41 41 40 38 37 37 37 34 33 32 30 27 28 30 29 28 27 27
35 36 36 34 34 38 35 33 35 35 37 35 36 33 35 41 38 37 37 37 37 36 36 37 38 39 39 39 38 36 34 33 33 33 31 29 26 24 23 23 21 19 19 23
28 29 35 35 33 34 36 36 36 37 37 35 37 36 37 40 37 36 35 35 35 35 35 36 36 35 35 34 33 32 32 32 29 28 26 24 22 19 16 12 15 17 23 24
27 28 30 31 30 30 36 39 39 38 39 37 36 36 37 39 36 35 34 34 34 34 34 34 33 33 32 31 31 30 28 27 25 23 20 19 18 17 17 17 18 22 25 24
28 32 37 35 34 38 35 41 43 41 40 40 39 37 38 37 35 35 34 34 33 32 32 32 32 31 29 27 25 25 24 22 20 17 17 22 22 21 15 14 21 22 22 20